Wetterdaten: Donnerstag, 16.07.2020
Datum Zeit Temp. Aussen Temp. o. S. Temp +5cm Feuchte Auss Luftdruck Regen Sonnenschein Regendauer Solar Windben Empfang
16.07.2020 00:00 16,8 C 15,0 C 15,0 C 83 % 1016,5 hPa 0,0 l/m 0 min 0 min 0 W/m 0,0 km/h (0 Bft) 100,00 %
16.07.2020 00:02 16,8 C 15,0 C 15,0 C 83 % 1016,5 hPa 0,0 l/m 0 min 0 min 0 W/m 3,2 km/h (1 Bft) 97,56 %
16.07.2020 00:04 16,8 C 15,0 C 15,0 C 84 % 1016,5 hPa 0,0 l/m 0 min 0 min 0 W/m 3,2 km/h (1 Bft) 100,00 %
16.07.2020 00:08 16,7 C 15,0 C 15,0 C 84 % 1016,6 hPa 0,0 l/m 0 min 0 min 0 W/m 6,4 km/h (2 Bft) 95,74 %
16.07.2020 00:10 16,7 C 15,0 C 15,0 C 84 % 1016,6 hPa 0,0 l/m 0 min 0 min 0 W/m 0,0 km/h (0 Bft) 97,87 %
16.07.2020 00:12 16,7 C 15,0 C 15,0 C 84 % 1016,6 hPa 0,0 l/m 0 min 0 min 0 W/m 0,0 km/h (0 Bft) 95,74 %
16.07.2020 00:14 16,7 C 15,0 C 15,0 C 84 % 1016,6 hPa 0,0 l/m 0 min 0 min 0 W/m 0,0 km/h (0 Bft) 95,74 %
16.07.2020 00:16 16,7 C 15,0 C 15,0 C 84 % 1016,6 hPa 0,0 l/m 0 min 0 min 0 W/m 0,0 km/h (0 Bft) 95,74 %
16.07.2020 00:18 16,6 C 15,0 C 15,0 C 84 % 1016,6 hPa 0,0 l/m 0 min 0 min 0 W/m 6,4 km/h (2 Bft) 95,35 %
16.07.2020 00:20 16,6 C 15,0 C 15,0 C 84 % 1016,6 hPa 0,0 l/m 0 min 0 min 0 W/m 0,0 km/h (0 Bft) 95,74 %
16.07.2020 00:22 16,6 C 15,0 C 15,0 C 85 % 1016,7 hPa 0,0 l/m 0 min 0 min 0 W/m 0,0 km/h (0 Bft) 97,87 %
16.07.2020 00:24 16,6 C 15,0 C 15,0 C 85 % 1016,7 hPa 0,0 l/m 0 min 0 min 0 W/m 0,0 km/h (0 Bft) 97,87 %
16.07.2020 00:26 16,6 C 15,0 C 15,0 C 85 % 1016,7 hPa 0,0 l/m 0 min 0 min 0 W/m 0,0 km/h (0 Bft) 97,87 %
16.07.2020 00:28 16,5 C 15,0 C 15,0 C 85 % 1016,6 hPa 0,0 l/m 0 min 0 min 0 W/m 0,0 km/h (0 Bft) 95,65 %
16.07.2020 00:30 16,5 C 15,0 C 15,0 C 85 % 1016,7 hPa 0,0 l/m 0 min 0 min 0 W/m 0,0 km/h (0 Bft) 97,87 %
16.07.2020 00:32 16,5 C 15,0 C 15,0 C 85 % 1016,6 hPa 0,0 l/m 0 min 2 min 0 W/m 0,0 km/h (0 Bft) 97,62 %
16.07.2020 00:34 16,4 C 15,0 C 15,0 C 85 % 1016,7 hPa 0,0 l/m 0 min 2 min 0 W/m 0,0 km/h (0 Bft) 95,74 %
16.07.2020 00:36 16,4 C 14,4 C 15,0 C 85 % 1016,6 hPa 0,0 l/m 0 min 2 min 0 W/m 0,0 km/h (0 Bft) 98,00 %
16.07.2020 00:38 16,4 C 14,4 C 15,0 C 85 % 1016,6 hPa 0,0 l/m 0 min 2 min 0 W/m 0,0 km/h (0 Bft) 97,96 %
16.07.2020 00:40 16,4 C 14,4 C 14,4 C 85 % 1016,7 hPa 0,0 l/m 0 min 0 min 0 W/m 0,0 km/h (0 Bft) 97,92 %
16.07.2020 00:42 16,4 C 14,4 C 14,4 C 85 % 1016,6 hPa 0,0 l/m 0 min 0 min 0 W/m 0,0 km/h (0 Bft) 97,96 %
16.07.2020 00:44 16,3 C 14,4 C 14,4 C 85 % 1016,7 hPa 0,0 l/m 0 min 0 min 0 W/m 0,0 km/h (0 Bft) 97,87 %
16.07.2020 00:46 16,3 C 14,4 C 14,4 C 85 % 1016,7 hPa 0,0 l/m 0 min 0 min 0 W/m 0,0 km/h (0 Bft) 97,87 %
16.07.2020 00:48 16,3 C 14,4 C 14,4 C 85 % 1016,6 hPa 0,0 l/m 0 min 0 min 0 W/m 0,0 km/h (0 Bft) 97,67 %
16.07.2020 00:50 16,3 C 14,4 C 14,4 C 85 % 1016,6 hPa 0,0 l/m 0 min 0 min 0 W/m 0,0 km/h (0 Bft) 95,74 %
16.07.2020 00:52 16,3 C 14,4 C 14,4 C 86 % 1016,6 hPa 0,0 l/m 0 min 0 min 0 W/m 0,0 km/h (0 Bft) 97,83 %
16.07.2020 00:54 16,3 C 14,4 C 14,4 C 86 % 1016,6 hPa 0,0 l/m 0 min 0 min 0 W/m 0,0 km/h (0 Bft) 97,87 %
16.07.2020 00:56 16,3 C 14,4 C 14,4 C 86 % 1016,6 hPa 0,0 l/m 0 min 0 min 0 W/m 0,0 km/h (0 Bft) 100,00 %
16.07.2020 00:58 16,2 C 14,4 C 14,4 C 86 % 1016,6 hPa 0,0 l/m 0 min 0 min 0 W/m 0,0 km/h (0 Bft) 100,00 %
16.07.2020 01:00 16,2 C 14,4 C 14,4 C 86 % 1016,6 hPa 0,0 l/m 0 min 0 min 0 W/m 0,0 km/h (0 Bft) 100,00 %
16.07.2020 01:02 16,2 C 14,4 C 14,4 C 86 % 1016,6 hPa 0,0 l/m 0 min 0 min 0 W/m 0,0 km/h (0 Bft) 97,87 %
16.07.2020 01:04 16,2 C 14,4 C 14,4 C 86 % 1016,6 hPa 0,0 l/m 0 min 0 min 0 W/m 0,0 km/h (0 Bft) 100,00 %
16.07.2020 01:06 16,2 C 14,4 C 14,4 C 86 % 1016,6 hPa 0,0 l/m 0 min 0 min 0 W/m 0,0 km/h (0 Bft) 97,87 %
16.07.2020 01:08 16,2 C 14,4 C 14,4 C 86 % 1016,6 hPa 0,0 l/m 0 min 0 min 0 W/m 0,0 km/h (0 Bft) 100,00 %
16.07.2020 01:10 16,1 C 14,4 C 14,4 C 86 % 1016,5 hPa 0,0 l/m 0 min 0 min 0 W/m 0,0 km/h (0 Bft) 97,87 %
16.07.2020 01:12 16,1 C 15,0 C 14,4 C 86 % 1016,5 hPa 0,0 l/m 0 min 0 min 0 W/m 0,0 km/h (0 Bft) 97,87 %
16.07.2020 01:14 16,1 C 15,0 C 14,4 C 86 % 1016,5 hPa 0,0 l/m 0 min 0 min 0 W/m 0,0 km/h (0 Bft) 100,00 %
16.07.2020 01:16 16,1 C 15,0 C 14,4 C 86 % 1016,5 hPa 0,0 l/m 0 min 0 min 0 W/m 0,0 km/h (0 Bft) 100,00 %
16.07.2020 01:18 16,1 C 15,0 C 14,4 C 87 % 1016,5 hPa 0,0 l/m 0 min 0 min 0 W/m 0,0 km/h (0 Bft) 100,00 %
16.07.2020 01:20 16,1 C 15,0 C 15,0 C 87 % 1016,5 hPa 0,0 l/m 0 min 0 min 0 W/m 0,0 km/h (0 Bft) 100,00 %
16.07.2020 01:22 16,1 C 15,0 C 15,0 C 87 % 1016,5 hPa 0,0 l/m 0 min 0 min 0 W/m 0,0 km/h (0 Bft) 100,00 %
16.07.2020 01:24 16,1 C 15,0 C 15,0 C 87 % 1016,5 hPa 0,0 l/m 0 min 0 min 0 W/m 0,0 km/h (0 Bft) 97,87 %
16.07.2020 01:26 16,1 C 15,0 C 15,0 C 87 % 1016,5 hPa 0,0 l/m 0 min 0 min 0 W/m 0,0 km/h (0 Bft) 97,83 %
16.07.2020 01:28 16,1 C 15,0 C 15,0 C 87 % 1016,4 hPa 0,0 l/m 0 min 0 min 0 W/m 0,0 km/h (0 Bft) 97,87 %
16.07.2020 01:30 16,0 C 15,0 C 15,0 C 87 % 1016,5 hPa 0,0 l/m 0 min 0 min 0 W/m 0,0 km/h (0 Bft) 97,87 %
16.07.2020 01:32 16,0 C 15,0 C 15,0 C 87 % 1016,5 hPa 0,0 l/m 0 min 0 min 0 W/m 0,0 km/h (0 Bft) 97,44 %
16.07.2020 01:34 16,0 C 15,0 C 14,4 C 87 % 1016,5 hPa 0,0 l/m 0 min 2 min 0 W/m 0,0 km/h (0 Bft) 97,83 %
16.07.2020 01:36 16,0 C 15,0 C 14,4 C 87 % 1016,6 hPa 0,0 l/m 0 min 2 min 0 W/m 0,0 km/h (0 Bft) 95,74 %
16.07.2020 01:38 16,0 C 14,4 C 14,4 C 87 % 1016,6 hPa 0,0 l/m 0 min 2 min 0 W/m 0,0 km/h (0 Bft) 95,74 %
16.07.2020 01:40 16,0 C 14,4 C 13,9 C 87 % 1016,5 hPa 0,0 l/m 0 min 2 min 0 W/m 0,0 km/h (0 Bft) 93,62 %
16.07.2020 01:42 16,0 C 13,9 C 13,9 C 87 % 1016,6 hPa 0,0 l/m 0 min 2 min 0 W/m 0,0 km/h (0 Bft) 95,74 %
16.07.2020 01:44 15,9 C 13,9 C 13,9 C 87 % 1016,6 hPa 0,0 l/m 0 min 0 min 0 W/m 0,0 km/h (0 Bft) 93,62 %
16.07.2020 01:46 15,9 C 13,9 C 13,9 C 87 % 1016,6 hPa 0,0 l/m 0 min 2 min 0 W/m 0,0 km/h (0 Bft) 95,65 %
16.07.2020 01:48 15,9 C 13,9 C 13,9 C 88 % 1016,6 hPa 0,0 l/m 0 min 2 min 0 W/m 0,0 km/h (0 Bft) 93,62 %
16.07.2020 01:50 15,9 C 13,9 C 13,9 C 88 % 1016,6 hPa 0,0 l/m 0 min 2 min 0 W/m 0,0 km/h (0 Bft) 97,87 %
16.07.2020 01:52 15,9 C 13,9 C 13,9 C 88 % 1016,6 hPa 0,0 l/m 0 min 2 min 0 W/m 0,0 km/h (0 Bft) 93,62 %
16.07.2020 01:54 15,9 C 13,9 C 13,9 C 88 % 1016,7 hPa 0,2 l/m 0 min 2 min 0 W/m 0,0 km/h (0 Bft) 93,62 %
16.07.2020 01:56 15,9 C 13,9 C 13,9 C 88 % 1016,6 hPa 0,0 l/m 0 min 2 min 0 W/m 0,0 km/h (0 Bft) 93,48 %
16.07.2020 01:58 15,9 C 13,9 C 13,9 C 88 % 1016,6 hPa 0,0 l/m 0 min 2 min 0 W/m 0,0 km/h (0 Bft) 95,74 %
16.07.2020 02:00 15,9 C 13,9 C 13,9 C 88 % 1016,6 hPa 0,0 l/m 0 min 2 min 0 W/m 0,0 km/h (0 Bft) 95,74 %
16.07.2020 02:02 15,9 C 13,3 C 13,9 C 88 % 1016,6 hPa 0,0 l/m 0 min 2 min 0 W/m 0,0 km/h (0 Bft) 95,74 %
16.07.2020 02:04 15,9 C 13,9 C 13,9 C 88 % 1016,6 hPa 0,0 l/m 0 min 2 min 0 W/m 0,0 km/h (0 Bft) 93,62 %
16.07.2020 02:06 15,9 C 13,9 C 13,9 C 88 % 1016,5 hPa 0,0 l/m 0 min 2 min 0 W/m 0,0 km/h (0 Bft) 95,74 %
16.07.2020 02:08 15,9 C 13,9 C 13,9 C 89 % 1016,6 hPa 0,0 l/m 0 min 2 min 0 W/m 0,0 km/h (0 Bft) 95,65 %
16.07.2020 02:10 15,9 C 13,9 C 13,9 C 89 % 1016,6 hPa 0,0 l/m 0 min 2 min 0 W/m 0,0 km/h (0 Bft) 95,74 %
16.07.2020 02:12 15,9 C 13,3 C 13,9 C 89 % 1016,6 hPa 0,0 l/m 0 min 2 min 0 W/m 0,0 km/h (0 Bft) 93,62 %
16.07.2020 02:14 15,9 C 13,3 C 13,3 C 89 % 1016,6 hPa 0,0 l/m 0 min 2 min 0 W/m 0,0 km/h (0 Bft) 95,74 %
16.07.2020 02:16 15,9 C 13,3 C 13,9 C 89 % 1016,6 hPa 0,0 l/m 0 min 2 min 0 W/m 0,0 km/h (0 Bft) 95,74 %
16.07.2020 02:18 15,9 C 13,3 C 13,3 C 89 % 1016,6 hPa 0,0 l/m 0 min 2 min 0 W/m 0,0 km/h (0 Bft) 95,74 %
16.07.2020 02:20 15,9 C 13,3 C 13,3 C 89 % 1016,6 hPa 0,0 l/m 0 min 0 min 0 W/m 0,0 km/h (0 Bft) 95,65 %
16.07.2020 02:22 15,9 C 13,3 C 13,3 C 89 % 1016,6 hPa 0,0 l/m 0 min 2 min 0 W/m 0,0 km/h (0 Bft) 95,74 %
16.07.2020 02:24 15,8 C 13,3 C 13,3 C 90 % 1016,6 hPa 0,0 l/m 0 min 2 min 0 W/m 0,0 km/h (0 Bft) 95,74 %
16.07.2020 02:26 15,8 C 13,3 C 13,3 C 90 % 1016,5 hPa 0,0 l/m 0 min 2 min 0 W/m 3,2 km/h (1 Bft) 95,74 %
16.07.2020 02:28 15,8 C 13,3 C 13,3 C 90 % 1016,6 hPa 0,0 l/m 0 min 2 min 0 W/m 0,0 km/h (0 Bft) 97,87 %
16.07.2020 02:30 15,8 C 13,3 C 13,3 C 90 % 1016,5 hPa 0,0 l/m 0 min 0 min 0 W/m 0,0 km/h (0 Bft) 95,74 %
16.07.2020 02:32 15,8 C 13,3 C 13,3 C 90 % 1016,6 hPa 0,0 l/m 0 min 0 min 0 W/m 0,0 km/h (0 Bft) 93,48 %
16.07.2020 02:34 15,7 C 13,3 C 13,3 C 90 % 1016,5 hPa 0,0 l/m 0 min 0 min 0 W/m 0,0 km/h (0 Bft) 97,87 %
16.07.2020 02:36 15,7 C 13,3 C 13,3 C 90 % 1016,6 hPa 0,0 l/m 0 min 0 min 0 W/m 0,0 km/h (0 Bft) 97,87 %
16.07.2020 02:38 15,7 C 13,3 C 13,3 C 90 % 1016,6 hPa 0,0 l/m 0 min 0 min 0 W/m 0,0 km/h (0 Bft) 97,87 %
16.07.2020 02:40 15,7 C 13,3 C 13,3 C 90 % 1016,6 hPa 0,0 l/m 0 min 0 min 0 W/m 0,0 km/h (0 Bft) 97,87 %
16.07.2020 02:42 15,6 C 13,3 C 13,3 C 90 % 1016,6 hPa 0,0 l/m 0 min 0 min 0 W/m 0,0 km/h (0 Bft) 100,00 %
16.07.2020 02:44 15,6 C 13,3 C 13,3 C 90 % 1016,6 hPa 0,0 l/m 0 min 2 min 0 W/m 0,0 km/h (0 Bft) 100,00 %
16.07.2020 02:46 15,6 C 13,3 C 13,3 C 90 % 1016,6 hPa 0,0 l/m 0 min 2 min 0 W/m 0,0 km/h (0 Bft) 100,00 %
16.07.2020 02:48 15,6 C 13,3 C 13,3 C 90 % 1016,6 hPa 0,0 l/m 0 min 2 min 0 W/m 0,0 km/h (0 Bft) 100,00 %
16.07.2020 02:50 15,6 C 13,3 C 13,3 C 90 % 1016,6 hPa 0,0 l/m 0 min 2 min 0 W/m 0,0 km/h (0 Bft) 97,87 %
16.07.2020 02:52 15,5 C 13,3 C 13,3 C 90 % 1016,6 hPa 0,0 l/m 0 min 2 min 0 W/m 0,0 km/h (0 Bft) 100,00 %
16.07.2020 02:54 15,5 C 13,3 C 12,8 C 90 % 1016,5 hPa 0,2 l/m 0 min 0 min 0 W/m 0,0 km/h (0 Bft) 100,00 %
16.07.2020 02:56 15,5 C 13,3 C 12,8 C 90 % 1016,5 hPa 0,0 l/m 0 min 0 min 0 W/m 0,0 km/h (0 Bft) 97,87 %
16.07.2020 02:58 15,4 C 13,3 C 12,8 C 90 % 1016,5 hPa 0,0 l/m 0 min 0 min 0 W/m 3,2 km/h (1 Bft) 100,00 %
16.07.2020 03:00 15,4 C 13,3 C 12,8 C 90 % 1016,5 hPa 0,0 l/m 0 min 0 min 0 W/m 0,0 km/h (0 Bft) 95,74 %
16.07.2020 03:02 15,4 C 13,3 C 12,8 C 90 % 1016,5 hPa 0,0 l/m 0 min 0 min 0 W/m 0,0 km/h (0 Bft) 97,87 %
16.07.2020 03:04 15,3 C 13,3 C 12,8 C 90 % 1016,4 hPa 0,0 l/m 0 min 0 min 0 W/m 0,0 km/h (0 Bft) 97,87 %
16.07.2020 03:06 15,3 C 13,3 C 12,8 C 90 % 1016,5 hPa 0,0 l/m 0 min 0 min 0 W/m 0,0 km/h (0 Bft) 97,83 %
16.07.2020 03:08 15,3 C 13,3 C 13,3 C 90 % 1016,4 hPa 0,0 l/m 0 min 0 min 0 W/m 0,0 km/h (0 Bft) 100,00 %
16.07.2020 03:10 15,3 C 13,3 C 13,3 C 90 % 1016,4 hPa 0,0 l/m 0 min 0 min 0 W/m 0,0 km/h (0 Bft) 96,36 %
16.07.2020 03:12 15,3 C 13,3 C 13,3 C 90 % 1016,4 hPa 0,0 l/m 0 min 2 min 0 W/m 0,0 km/h (0 Bft) 97,87 %
16.07.2020 03:14 15,2 C 13,3 C 12,8 C 90 % 1016,4 hPa 0,0 l/m 0 min 2 min 0 W/m 0,0 km/h (0 Bft) 97,87 %
16.07.2020 03:16 15,2 C 12,8 C 12,8 C 90 % 1016,4 hPa 0,0 l/m 0 min 2 min 0 W/m 0,0 km/h (0 Bft) 97,87 %
16.07.2020 03:18 15,2 C 12,8 C 12,8 C 90 % 1016,4 hPa 0,0 l/m 0 min 2 min 0 W/m 0,0 km/h (0 Bft) 97,87 %
16.07.2020 03:20 15,2 C 12,8 C 12,8 C 90 % 1016,5 hPa 0,0 l/m 0 min 2 min 0 W/m 0,0 km/h (0 Bft) 95,74 %
16.07.2020 03:22 15,2 C 12,8 C 12,8 C 90 % 1016,4 hPa 0,0 l/m 0 min 2 min 0 W/m 0,0 km/h (0 Bft) 95,65 %
16.07.2020 03:24 15,1 C 12,8 C 12,8 C 91 % 1016,4 hPa 0,0 l/m 0 min 2 min 0 W/m 0,0 km/h (0 Bft) 97,87 %
16.07.2020 03:26 15,1 C 12,8 C 12,8 C 91 % 1016,4 hPa 0,0 l/m 0 min 2 min 0 W/m 0,0 km/h (0 Bft) 93,62 %
16.07.2020 03:28 15,1 C 12,8 C 12,8 C 91 % 1016,4 hPa 0,0 l/m 0 min 2 min 0 W/m 0,0 km/h (0 Bft) 97,87 %
16.07.2020 03:30 15,1 C 12,8 C 12,8 C 91 % 1016,4 hPa 0,0 l/m 0 min 2 min 0 W/m 0,0 km/h (0 Bft) 97,87 %
16.07.2020 03:32 15,1 C 12,8 C 12,8 C 90 % 1016,4 hPa 0,0 l/m 0 min 2 min 0 W/m 0,0 km/h (0 Bft) 95,74 %
16.07.2020 03:34 15,1 C 12,8 C 12,8 C 91 % 1016,3 hPa 0,0 l/m 0 min 2 min 0 W/m 0,0 km/h (0 Bft) 97,83 %
16.07.2020 03:36 15,0 C 12,8 C 12,8 C 91 % 1016,4 hPa 0,0 l/m 0 min 2 min 0 W/m 0,0 km/h (0 Bft) 97,87 %
16.07.2020 03:38 15,0 C 12,8 C 12,8 C 91 % 1016,4 hPa 0,0 l/m 0 min 0 min 0 W/m 0,0 km/h (0 Bft) 95,74 %
16.07.2020 03:40 15,0 C 12,8 C 12,8 C 91 % 1016,4 hPa 0,0 l/m 0 min 0 min 0 W/m 0,0 km/h (0 Bft) 98,00 %
16.07.2020 03:42 15,0 C 12,8 C 12,8 C 91 % 1016,4 hPa 0,0 l/m 0 min 0 min 0 W/m 0,0 km/h (0 Bft) 95,74 %
16.07.2020 03:44 14,9 C 12,8 C 12,8 C 91 % 1016,4 hPa 0,0 l/m 0 min 0 min 0 W/m 0,0 km/h (0 Bft) 97,83 %
16.07.2020 03:46 14,9 C 12,8 C 12,8 C 91 % 1016,4 hPa 0,0 l/m 0 min 0 min 0 W/m 0,0 km/h (0 Bft) 97,87 %
16.07.2020 03:48 14,9 C 12,8 C 12,8 C 91 % 1016,4 hPa 0,0 l/m 0 min 0 min 0 W/m 0,0 km/h (0 Bft) 93,62 %
16.07.2020 03:50 14,9 C 12,8 C 12,8 C 91 % 1016,4 hPa 0,0 l/m 0 min 0 min 0 W/m 0,0 km/h (0 Bft) 97,87 %
16.07.2020 03:52 14,9 C 12,8 C 12,8 C 91 % 1016,4 hPa 0,0 l/m 0 min 0 min 0 W/m 0,0 km/h (0 Bft) 95,74 %
16.07.2020 03:54 14,9 C 12,8 C 12,8 C 91 % 1016,4 hPa 0,0 l/m 0 min 0 min 0 W/m 0,0 km/h (0 Bft) 100,00 %
16.07.2020 03:56 14,9 C 12,8 C 12,8 C 91 % 1016,4 hPa 0,0 l/m 0 min 0 min 0 W/m 0,0 km/h (0 Bft) 100,00 %
16.07.2020 03:58 14,9 C 12,8 C 12,8 C 91 % 1016,3 hPa 0,0 l/m 0 min 0 min 0 W/m 0,0 km/h (0 Bft) 100,00 %
16.07.2020 04:00 14,8 C 12,8 C 12,8 C 91 % 1016,3 hPa 0,0 l/m 0 min 2 min 0 W/m 0,0 km/h (0 Bft) 97,87 %
16.07.2020 04:02 14,8 C 12,8 C 12,8 C 91 % 1016,3 hPa 0,0 l/m 0 min 0 min 0 W/m 0,0 km/h (0 Bft) 100,00 %
16.07.2020 04:04 14,8 C 12,8 C 12,8 C 92 % 1016,3 hPa 0,0 l/m 0 min 2 min 0 W/m 0,0 km/h (0 Bft) 95,65 %
16.07.2020 04:06 14,8 C 12,8 C 12,8 C 92 % 1016,3 hPa 0,0 l/m 0 min 2 min 0 W/m 0,0 km/h (0 Bft) 100,00 %
16.07.2020 04:08 14,8 C 12,8 C 12,8 C 92 % 1016,4 hPa 0,0 l/m 0 min 0 min 0 W/m 0,0 km/h (0 Bft) 97,87 %
16.07.2020 04:10 14,8 C 12,8 C 12,8 C 92 % 1016,3 hPa 0,0 l/m 0 min 0 min 0 W/m 0,0 km/h (0 Bft) 98,11 %
16.07.2020 04:12 14,8 C 13,3 C 12,8 C 92 % 1016,3 hPa 0,0 l/m 0 min 0 min 0 W/m 0,0 km/h (0 Bft) 100,00 %
16.07.2020 04:14 14,8 C 12,8 C 13,3 C 92 % 1016,4 hPa 0,0 l/m 0 min 0 min 0 W/m 0,0 km/h (0 Bft) 97,87 %
16.07.2020 04:16 14,8 C 13,3 C 12,8 C 92 % 1016,3 hPa 0,0 l/m 0 min 0 min 0 W/m 0,0 km/h (0 Bft) 100,00 %
16.07.2020 04:18 14,8 C 13,3 C 12,8 C 92 % 1016,4 hPa 0,0 l/m 0 min 0 min 0 W/m 0,0 km/h (0 Bft) 97,87 %
16.07.2020 04:20 14,8 C 13,3 C 12,8 C 92 % 1016,3 hPa 0,0 l/m 0 min 0 min 0 W/m 0,0 km/h (0 Bft) 97,87 %
16.07.2020 04:22 14,8 C 13,3 C 12,8 C 92 % 1016,3 hPa 0,0 l/m 0 min 0 min 0 W/m 0,0 km/h (0 Bft) 95,65 %
16.07.2020 04:24 14,8 C 13,3 C 12,8 C 92 % 1016,3 hPa 0,0 l/m 0 min 0 min 0 W/m 0,0 km/h (0 Bft) 93,62 %
16.07.2020 04:26 14,8 C 13,3 C 13,3 C 92 % 1016,3 hPa 0,0 l/m 0 min 0 min 0 W/m 0,0 km/h (0 Bft) 97,87 %
16.07.2020 04:28 14,8 C 13,3 C 12,8 C 92 % 1016,3 hPa 0,0 l/m 0 min 0 min 0 W/m 0,0 km/h (0 Bft) 97,87 %
16.07.2020 04:30 14,8 C 13,3 C 12,8 C 92 % 1016,3 hPa 0,0 l/m 0 min 0 min 0 W/m 0,0 km/h (0 Bft) 97,87 %
16.07.2020 04:32 14,8 C 13,3 C 12,8 C 92 % 1016,3 hPa 0,0 l/m 0 min 0 min 0 W/m 0,0 km/h (0 Bft) 97,83 %
16.07.2020 04:34 14,8 C 13,3 C 12,8 C 92 % 1016,4 hPa 0,0 l/m 0 min 0 min 0 W/m 0,0 km/h (0 Bft) 95,12 %
16.07.2020 04:36 14,7 C 13,3 C 12,8 C 92 % 1016,3 hPa 0,0 l/m 0 min 0 min 0 W/m 0,0 km/h (0 Bft) 97,87 %
16.07.2020 04:38 14,8 C 13,3 C 12,8 C 92 % 1016,3 hPa 0,0 l/m 0 min 0 min 0 W/m 0,0 km/h (0 Bft) 97,87 %
16.07.2020 04:40 14,7 C 13,3 C 12,8 C 92 % 1016,2 hPa 0,0 l/m 0 min 0 min 0 W/m 0,0 km/h (0 Bft) 67,92 %
16.07.2020 04:42 14,8 C 13,3 C 12,8 C 93 % 1016,1 hPa 0,0 l/m 0 min 0 min 0 W/m 0,0 km/h (0 Bft) 86,67 %
16.07.2020 04:44 14,7 C 13,3 C 12,8 C 93 % 1016,1 hPa 0,0 l/m 0 min 0 min 0 W/m 0,0 km/h (0 Bft) 97,83 %
16.07.2020 04:46 14,7 C 13,3 C 12,8 C 93 % 1016,1 hPa 0,0 l/m 0 min 0 min 0 W/m 0,0 km/h (0 Bft) 97,87 %
16.07.2020 04:48 14,7 C 13,3 C 12,8 C 93 % 1016,2 hPa 0,0 l/m 0 min 0 min 0 W/m 0,0 km/h (0 Bft) 95,74 %
16.07.2020 04:50 14,7 C 13,3 C 13,3 C 93 % 1016,2 hPa 0,0 l/m 0 min 0 min 0 W/m 0,0 km/h (0 Bft) 97,87 %
16.07.2020 04:52 14,7 C 13,3 C 13,3 C 93 % 1016,2 hPa 0,0 l/m 0 min 0 min 0 W/m 0,0 km/h (0 Bft) 97,87 %
16.07.2020 04:54 14,7 C 13,3 C 13,3 C 93 % 1016,2 hPa 0,0 l/m 0 min 0 min 0 W/m 0,0 km/h (0 Bft) 95,74 %
16.07.2020 04:56 14,7 C 13,3 C 13,3 C 93 % 1016,2 hPa 0,0 l/m 0 min 0 min 0 W/m 0,0 km/h (0 Bft) 97,83 %
16.07.2020 04:58 14,7 C 13,3 C 13,3 C 93 % 1016,2 hPa 0,0 l/m 0 min 0 min 0 W/m 0,0 km/h (0 Bft) 100,00 %
16.07.2020 05:00 14,8 C 13,3 C 13,3 C 93 % 1016,2 hPa 0,0 l/m 0 min 0 min 0 W/m 0,0 km/h (0 Bft) 100,00 %
16.07.2020 05:02 14,8 C 13,3 C 13,3 C 93 % 1016,2 hPa 0,0 l/m 0 min 0 min 0 W/m 0,0 km/h (0 Bft) 100,00 %
16.07.2020 05:04 14,8 C 13,3 C 13,3 C 93 % 1016,2 hPa 0,0 l/m 0 min 0 min 0 W/m 0,0 km/h (0 Bft) 100,00 %
16.07.2020 05:06 14,8 C 13,3 C 13,3 C 93 % 1016,2 hPa 0,0 l/m 0 min 0 min 0 W/m 0,0 km/h (0 Bft) 100,00 %
16.07.2020 05:08 14,8 C 13,3 C 13,3 C 93 % 1016,3 hPa 0,0 l/m 0 min 0 min 0 W/m 0,0 km/h (0 Bft) 100,00 %
16.07.2020 05:10 14,8 C 13,3 C 13,3 C 93 % 1016,3 hPa 0,0 l/m 0 min 0 min 0 W/m 0,0 km/h (0 Bft) 100,00 %
16.07.2020 05:12 14,7 C 13,3 C 13,3 C 93 % 1016,2 hPa 0,0 l/m 0 min 0 min 0 W/m 0,0 km/h (0 Bft) 100,00 %
16.07.2020 05:14 14,8 C 13,3 C 13,3 C 93 % 1016,2 hPa 0,0 l/m 0 min 0 min 0 W/m 0,0 km/h (0 Bft) 100,00 %
16.07.2020 05:16 14,8 C 13,3 C 13,3 C 93 % 1016,2 hPa 0,0 l/m 0 min 0 min 0 W/m 0,0 km/h (0 Bft) 100,00 %
16.07.2020 05:18 14,8 C 13,3 C 13,3 C 94 % 1016,2 hPa 0,0 l/m 0 min 0 min 0 W/m 0,0 km/h (0 Bft) 100,00 %
16.07.2020 05:20 14,8 C 13,3 C 13,3 C 94 % 1016,2 hPa 0,0 l/m 0 min 0 min 0 W/m 0,0 km/h (0 Bft) 100,00 %
16.07.2020 05:22 14,8 C 13,3 C 13,3 C 94 % 1016,2 hPa 0,0 l/m 0 min 0 min 0 W/m 0,0 km/h (0 Bft) 100,00 %
16.07.2020 05:24 14,8 C 13,3 C 13,3 C 94 % 1016,3 hPa 0,0 l/m 0 min 0 min 0 W/m 3,2 km/h (1 Bft) 100,00 %
16.07.2020 05:26 14,8 C 13,3 C 13,3 C 94 % 1016,3 hPa 0,0 l/m 0 min 0 min 0 W/m 3,2 km/h (1 Bft) 100,00 %
16.07.2020 05:28 14,8 C 13,3 C 13,3 C 94 % 1016,2 hPa 0,0 l/m 0 min 0 min 0 W/m 6,4 km/h (2 Bft) 97,87 %
16.07.2020 05:30 14,8 C 13,3 C 13,3 C 94 % 1016,2 hPa 0,0 l/m 0 min 0 min 0 W/m 3,2 km/h (1 Bft) 100,00 %
16.07.2020 05:32 14,8 C 13,3 C 13,3 C 94 % 1016,2 hPa 0,0 l/m 0 min 0 min 0 W/m 0,0 km/h (0 Bft) 100,00 %
16.07.2020 05:34 14,8 C 13,3 C 13,3 C 94 % 1016,2 hPa 0,0 l/m 0 min 0 min 0 W/m 0,0 km/h (0 Bft) 100,00 %
16.07.2020 05:36 14,8 C 13,3 C 13,3 C 94 % 1016,3 hPa 0,0 l/m 0 min 0 min 0 W/m 0,0 km/h (0 Bft) 100,00 %
16.07.2020 05:38 14,8 C 13,3 C 13,3 C 94 % 1016,2 hPa 0,0 l/m 0 min 0 min 0 W/m 0,0 km/h (0 Bft) 95,74 %
16.07.2020 05:40 14,8 C 13,3 C 13,3 C 94 % 1016,2 hPa 0,0 l/m 0 min 0 min 0 W/m 0,0 km/h (0 Bft) 97,96 %
16.07.2020 05:42 14,8 C 13,3 C 13,3 C 94 % 1016,2 hPa 0,0 l/m 0 min 0 min 0 W/m 3,2 km/h (1 Bft) 95,74 %
16.07.2020 05:44 14,8 C 13,3 C 13,3 C 94 % 1016,2 hPa 0,0 l/m 0 min 0 min 0 W/m 0,0 km/h (0 Bft) 97,87 %
16.07.2020 05:46 14,8 C 13,3 C 13,3 C 94 % 1016,2 hPa 0,0 l/m 0 min 0 min 0 W/m 0,0 km/h (0 Bft) 97,87 %
16.07.2020 05:48 14,8 C 13,3 C 13,3 C 94 % 1016,1 hPa 0,0 l/m 0 min 0 min 0 W/m 0,0 km/h (0 Bft) 97,87 %
16.07.2020 05:50 14,8 C 13,3 C 13,3 C 94 % 1016,1 hPa 0,0 l/m 0 min 0 min 0 W/m 0,0 km/h (0 Bft) 97,87 %
16.07.2020 05:52 14,8 C 13,3 C 13,3 C 94 % 1016,1 hPa 0,0 l/m 0 min 0 min 2 W/m 0,0 km/h (0 Bft) 95,65 %
16.07.2020 05:54 14,8 C 13,3 C 13,3 C 94 % 1016,1 hPa 0,0 l/m 0 min 0 min 5 W/m 0,0 km/h (0 Bft) 97,87 %
16.07.2020 05:56 14,8 C 13,3 C 13,3 C 94 % 1016,1 hPa 0,0 l/m 0 min 0 min 5 W/m 3,2 km/h (1 Bft) 95,74 %
16.07.2020 05:58 14,8 C 13,3 C 13,3 C 94 % 1016,1 hPa 0,0 l/m 0 min 0 min 5 W/m 0,0 km/h (0 Bft) 97,87 %
16.07.2020 06:00 14,8 C 13,3 C 13,3 C 94 % 1016,1 hPa 0,0 l/m 0 min 0 min 5 W/m 0,0 km/h (0 Bft) 95,74 %
16.07.2020 06:02 14,8 C 13,9 C 13,3 C 94 % 1016,1 hPa 0,0 l/m 0 min 0 min 5 W/m 0,0 km/h (0 Bft) 97,92 %
16.07.2020 06:04 14,8 C 13,3 C 13,3 C 94 % 1016,1 hPa 0,0 l/m 0 min 0 min 6 W/m 0,0 km/h (0 Bft) 95,65 %
16.07.2020 06:08 14,8 C 13,9 C 13,3 C 94 % 1016,1 hPa 0,0 l/m 0 min 0 min 7 W/m 0,0 km/h (0 Bft) 95,74 %
16.07.2020 06:10 14,8 C 13,9 C 13,3 C 94 % 1016,1 hPa 0,0 l/m 0 min 0 min 8 W/m 0,0 km/h (0 Bft) 95,74 %
16.07.2020 06:12 14,8 C 13,9 C 13,3 C 94 % 1016,1 hPa 0,0 l/m 0 min 0 min 9 W/m 0,0 km/h (0 Bft) 95,74 %
16.07.2020 06:14 14,8 C 13,9 C 13,3 C 94 % 1016,1 hPa 0,0 l/m 0 min 0 min 10 W/m 0,0 km/h (0 Bft) 95,74 %
16.07.2020 06:16 14,8 C 13,9 C 13,3 C 94 % 1016,1 hPa 0,0 l/m 0 min 0 min 11 W/m 0,0 km/h (0 Bft) 95,65 %
16.07.2020 06:18 14,8 C 13,9 C 13,3 C 94 % 1016,1 hPa 0,0 l/m 0 min 0 min 11 W/m 0,0 km/h (0 Bft) 93,62 %
16.07.2020 06:20 14,8 C 13,9 C 13,3 C 94 % 1016,2 hPa 0,0 l/m 0 min 0 min 9 W/m 3,2 km/h (1 Bft) 95,74 %
16.07.2020 06:22 14,8 C 13,9 C 13,3 C 94 % 1016,2 hPa 0,0 l/m 0 min 0 min 9 W/m 0,0 km/h (0 Bft) 95,74 %
16.07.2020 06:24 14,8 C 13,9 C 13,3 C 94 % 1016,1 hPa 0,0 l/m 0 min 0 min 11 W/m 0,0 km/h (0 Bft) 95,74 %
16.07.2020 06:26 14,8 C 13,9 C 13,3 C 94 % 1016,2 hPa 0,0 l/m 0 min 0 min 11 W/m 3,2 km/h (1 Bft) 95,74 %
16.07.2020 06:28 14,8 C 13,9 C 13,3 C 94 % 1016,2 hPa 0,0 l/m 0 min 0 min 12 W/m 3,2 km/h (1 Bft) 95,65 %
16.07.2020 06:30 14,8 C 13,9 C 13,3 C 94 % 1016,1 hPa 0,0 l/m 0 min 0 min 13 W/m 3,2 km/h (1 Bft) 93,62 %
16.07.2020 06:32 14,8 C 13,9 C 13,9 C 94 % 1016,2 hPa 0,0 l/m 0 min 0 min 15 W/m 0,0 km/h (0 Bft) 93,75 %
16.07.2020 06:34 14,8 C 13,9 C 13,9 C 94 % 1016,1 hPa 0,0 l/m 0 min 0 min 16 W/m 0,0 km/h (0 Bft) 91,49 %
16.07.2020 06:36 14,8 C 14,4 C 13,9 C 94 % 1016,2 hPa 0,0 l/m 0 min 0 min 16 W/m 0,0 km/h (0 Bft) 95,74 %
16.07.2020 06:38 14,8 C 14,4 C 13,9 C 94 % 1016,2 hPa 0,0 l/m 0 min 0 min 16 W/m 0,0 km/h (0 Bft) 93,48 %
16.07.2020 06:40 14,8 C 14,4 C 13,9 C 94 % 1016,2 hPa 0,0 l/m 0 min 0 min 16 W/m 3,2 km/h (1 Bft) 93,62 %
16.07.2020 06:42 14,9 C 14,4 C 13,9 C 94 % 1016,2 hPa 0,0 l/m 0 min 0 min 16 W/m 3,2 km/h (1 Bft) 93,62 %
16.07.2020 06:44 14,9 C 14,4 C 13,9 C 94 % 1016,2 hPa 0,0 l/m 0 min 0 min 16 W/m 3,2 km/h (1 Bft) 93,62 %
16.07.2020 06:46 14,9 C 14,4 C 13,9 C 94 % 1016,2 hPa 0,0 l/m 0 min 0 min 16 W/m 6,4 km/h (2 Bft) 97,87 %
16.07.2020 06:48 14,9 C 14,4 C 13,9 C 94 % 1016,3 hPa 0,0 l/m 0 min 0 min 17 W/m 3,2 km/h (1 Bft) 95,74 %
16.07.2020 06:50 14,9 C 14,4 C 13,9 C 94 % 1016,3 hPa 0,0 l/m 0 min 0 min 18 W/m 3,2 km/h (1 Bft) 95,65 %
16.07.2020 06:52 14,9 C 14,4 C 13,9 C 94 % 1016,3 hPa 0,0 l/m 0 min 0 min 18 W/m 0,0 km/h (0 Bft) 89,36 %
16.07.2020 06:54 14,9 C 14,4 C 13,9 C 94 % 1016,3 hPa 0,0 l/m 0 min 0 min 18 W/m 6,4 km/h (2 Bft) 97,87 %
16.07.2020 06:56 14,9 C 14,4 C 13,9 C 94 % 1016,3 hPa 0,0 l/m 0 min 0 min 18 W/m 3,2 km/h (1 Bft) 95,74 %
16.07.2020 06:58 14,9 C 14,4 C 13,9 C 94 % 1016,3 hPa 0,0 l/m 0 min 0 min 18 W/m 3,2 km/h (1 Bft) 97,87 %
16.07.2020 07:00 14,9 C 14,4 C 13,9 C 94 % 1016,3 hPa 0,0 l/m 0 min 0 min 18 W/m 6,4 km/h (2 Bft) 95,74 %
16.07.2020 07:02 14,9 C 14,4 C 13,9 C 94 % 1016,3 hPa 0,0 l/m 0 min 0 min 18 W/m 16,1 km/h (3 Bft) 95,74 %
16.07.2020 07:04 14,9 C 14,4 C 13,9 C 94 % 1016,3 hPa 0,0 l/m 0 min 0 min 19 W/m 6,4 km/h (2 Bft) 97,67 %
16.07.2020 07:06 14,9 C 14,4 C 13,9 C 94 % 1016,3 hPa 0,0 l/m 0 min 0 min 20 W/m 0,0 km/h (0 Bft) 97,87 %
16.07.2020 07:08 14,9 C 14,4 C 13,9 C 94 % 1016,3 hPa 0,0 l/m 0 min 0 min 21 W/m 12,9 km/h (3 Bft) 95,65 %
16.07.2020 07:10 14,9 C 14,4 C 13,9 C 94 % 1016,3 hPa 0,0 l/m 0 min 0 min 23 W/m 6,4 km/h (2 Bft) 95,35 %
16.07.2020 07:12 14,9 C 14,4 C 13,9 C 94 % 1016,4 hPa 0,0 l/m 0 min 0 min 23 W/m 3,2 km/h (1 Bft) 97,87 %
16.07.2020 07:14 14,8 C 14,4 C 13,9 C 94 % 1016,3 hPa 0,0 l/m 0 min 0 min 23 W/m 3,2 km/h (1 Bft) 97,87 %
16.07.2020 07:16 14,8 C 14,4 C 13,9 C 93 % 1016,3 hPa 0,0 l/m 0 min 0 min 21 W/m 6,4 km/h (2 Bft) 95,65 %
16.07.2020 07:18 14,9 C 14,4 C 13,9 C 93 % 1016,3 hPa 0,0 l/m 0 min 0 min 21 W/m 0,0 km/h (0 Bft) 97,87 %
16.07.2020 07:20 14,8 C 14,4 C 13,9 C 93 % 1016,4 hPa 0,0 l/m 0 min 0 min 22 W/m 3,2 km/h (1 Bft) 97,87 %
16.07.2020 07:22 14,8 C 14,4 C 13,9 C 93 % 1016,4 hPa 0,0 l/m 0 min 0 min 21 W/m 0,0 km/h (0 Bft) 93,62 %
16.07.2020 07:24 14,8 C 14,4 C 13,9 C 93 % 1016,4 hPa 0,0 l/m 0 min 0 min 21 W/m 0,0 km/h (0 Bft) 97,87 %
16.07.2020 07:26 14,8 C 14,4 C 13,9 C 93 % 1016,4 hPa 0,0 l/m 0 min 0 min 21 W/m 6,4 km/h (2 Bft) 97,87 %
16.07.2020 07:28 14,8 C 14,4 C 13,9 C 93 % 1016,4 hPa 0,0 l/m 0 min 0 min 21 W/m 9,7 km/h (2 Bft) 97,83 %
16.07.2020 07:30 14,8 C 14,4 C 13,9 C 93 % 1016,4 hPa 0,0 l/m 0 min 0 min 19 W/m 3,2 km/h (1 Bft) 97,87 %
16.07.2020 07:32 14,8 C 14,4 C 13,9 C 92 % 1016,4 hPa 0,0 l/m 0 min 0 min 19 W/m 3,2 km/h (1 Bft) 97,92 %
16.07.2020 07:34 14,8 C 14,4 C 13,9 C 92 % 1016,5 hPa 0,0 l/m 0 min 0 min 19 W/m 3,2 km/h (1 Bft) 100,00 %
16.07.2020 07:36 14,8 C 14,4 C 13,9 C 92 % 1016,5 hPa 0,0 l/m 0 min 0 min 19 W/m 0,0 km/h (0 Bft) 100,00 %
16.07.2020 07:38 14,8 C 14,4 C 13,9 C 92 % 1016,5 hPa 0,0 l/m 0 min 0 min 19 W/m 3,2 km/h (1 Bft) 100,00 %
16.07.2020 07:40 14,8 C 14,4 C 13,9 C 92 % 1016,5 hPa 0,0 l/m 0 min 0 min 19 W/m 3,2 km/h (1 Bft) 100,00 %
16.07.2020 07:42 14,8 C 14,4 C 13,9 C 92 % 1016,5 hPa 0,0 l/m 0 min 0 min 18 W/m 3,2 km/h (1 Bft) 100,00 %
16.07.2020 07:44 14,8 C 14,4 C 13,9 C 92 % 1016,5 hPa 0,0 l/m 0 min 0 min 18 W/m 6,4 km/h (2 Bft) 100,00 %
16.07.2020 07:46 14,8 C 14,4 C 13,9 C 92 % 1016,6 hPa 0,0 l/m 0 min 0 min 19 W/m 3,2 km/h (1 Bft) 100,00 %
16.07.2020 07:48 14,8 C 14,4 C 13,9 C 92 % 1016,5 hPa 0,0 l/m 0 min 0 min 19 W/m 0,0 km/h (0 Bft) 100,00 %
16.07.2020 07:50 14,8 C 14,4 C 13,9 C 92 % 1016,5 hPa 0,0 l/m 0 min 0 min 19 W/m 6,4 km/h (2 Bft) 100,00 %
16.07.2020 07:52 14,8 C 14,4 C 13,9 C 92 % 1016,5 hPa 0,0 l/m 0 min 0 min 19 W/m 3,2 km/h (1 Bft) 97,87 %
16.07.2020 07:54 14,8 C 14,4 C 13,9 C 92 % 1016,5 hPa 0,0 l/m 0 min 0 min 19 W/m 3,2 km/h (1 Bft) 100,00 %
16.07.2020 07:56 14,8 C 13,9 C 13,9 C 92 % 1016,5 hPa 0,0 l/m 0 min 0 min 20 W/m 12,9 km/h (3 Bft) 100,00 %
16.07.2020 07:58 14,8 C 13,9 C 13,9 C 91 % 1016,6 hPa 0,0 l/m 0 min 0 min 19 W/m 3,2 km/h (1 Bft) 97,87 %
16.07.2020 08:00 14,8 C 13,9 C 13,9 C 91 % 1016,6 hPa 0,0 l/m 0 min 0 min 19 W/m 3,2 km/h (1 Bft) 100,00 %
16.07.2020 08:02 14,8 C 13,9 C 13,9 C 91 % 1016,6 hPa 0,0 l/m 0 min 0 min 20 W/m 9,7 km/h (2 Bft) 97,87 %
16.07.2020 08:04 14,8 C 13,9 C 13,9 C 91 % 1016,6 hPa 0,0 l/m 0 min 0 min 22 W/m 6,4 km/h (2 Bft) 100,00 %
16.07.2020 08:06 14,8 C 13,9 C 13,9 C 91 % 1016,6 hPa 0,0 l/m 0 min 0 min 24 W/m 6,4 km/h (2 Bft) 100,00 %
16.07.2020 08:08 14,8 C 13,9 C 13,9 C 91 % 1016,6 hPa 0,0 l/m 0 min 0 min 25 W/m 12,9 km/h (3 Bft) 100,00 %
16.07.2020 08:10 14,8 C 13,9 C 13,9 C 91 % 1016,7 hPa 0,0 l/m 0 min 0 min 25 W/m 6,4 km/h (2 Bft) 100,00 %
16.07.2020 08:12 14,8 C 13,9 C 13,9 C 91 % 1016,7 hPa 0,0 l/m 0 min 0 min 25 W/m 9,7 km/h (2 Bft) 100,00 %
16.07.2020 08:14 14,8 C 13,9 C 13,9 C 91 % 1016,7 hPa 0,0 l/m 0 min 0 min 25 W/m 6,4 km/h (2 Bft) 100,00 %
16.07.2020 08:16 14,8 C 13,9 C 13,9 C 92 % 1016,7 hPa 0,0 l/m 0 min 0 min 24 W/m 6,4 km/h (2 Bft) 100,00 %
16.07.2020 08:18 14,8 C 13,9 C 13,9 C 92 % 1016,7 hPa 0,0 l/m 0 min 2 min 23 W/m 9,7 km/h (2 Bft) 100,00 %
16.07.2020 08:20 14,8 C 13,9 C 13,3 C 92 % 1016,7 hPa 0,0 l/m 0 min 0 min 23 W/m 12,9 km/h (3 Bft) 100,00 %
16.07.2020 08:22 14,8 C 13,9 C 13,3 C 92 % 1016,7 hPa 0,0 l/m 0 min 0 min 25 W/m 6,4 km/h (2 Bft) 100,00 %
16.07.2020 08:24 14,8 C 13,3 C 13,3 C 92 % 1016,7 hPa 0,0 l/m 0 min 2 min 25 W/m 16,1 km/h (3 Bft) 100,00 %
16.07.2020 08:26 14,8 C 13,3 C 13,3 C 92 % 1016,7 hPa 0,0 l/m 0 min 0 min 26 W/m 3,2 km/h (1 Bft) 97,87 %
16.07.2020 08:28 14,8 C 13,3 C 13,3 C 92 % 1016,7 hPa 0,0 l/m 0 min 0 min 27 W/m 6,4 km/h (2 Bft) 100,00 %
16.07.2020 08:30 14,8 C 13,3 C 13,3 C 92 % 1016,7 hPa 0,0 l/m 0 min 0 min 28 W/m 3,2 km/h (1 Bft) 95,65 %
16.07.2020 08:32 14,8 C 12,8 C 12,8 C 92 % 1016,7 hPa 0,0 l/m 0 min 0 min 31 W/m 3,2 km/h (1 Bft) 97,87 %
16.07.2020 08:34 14,8 C 12,8 C 12,8 C 92 % 1016,7 hPa 0,0 l/m 0 min 0 min 33 W/m 12,9 km/h (3 Bft) 100,00 %
16.07.2020 08:36 14,8 C 12,8 C 12,8 C 92 % 1016,7 hPa 0,0 l/m 0 min 0 min 38 W/m 3,2 km/h (1 Bft) 100,00 %
16.07.2020 08:38 14,8 C 13,3 C 12,8 C 93 % 1016,7 hPa 0,0 l/m 0 min 0 min 41 W/m 6,4 km/h (2 Bft) 100,00 %
16.07.2020 08:40 14,8 C 13,3 C 12,8 C 93 % 1016,7 hPa 0,0 l/m 0 min 0 min 41 W/m 3,2 km/h (1 Bft) 100,00 %
16.07.2020 08:42 14,8 C 13,3 C 12,8 C 93 % 1016,7 hPa 0,0 l/m 0 min 0 min 41 W/m 12,9 km/h (3 Bft) 100,00 %
16.07.2020 08:44 14,8 C 13,3 C 13,3 C 93 % 1016,7 hPa 0,0 l/m 0 min 0 min 42 W/m 3,2 km/h (1 Bft) 100,00 %
16.07.2020 08:46 14,8 C 13,3 C 12,8 C 93 % 1016,7 hPa 0,0 l/m 0 min 0 min 43 W/m 6,4 km/h (2 Bft) 100,00 %
16.07.2020 08:48 14,7 C 13,3 C 12,8 C 93 % 1016,7 hPa 0,0 l/m 0 min 0 min 40 W/m 6,4 km/h (2 Bft) 100,00 %
16.07.2020 08:50 14,7 C 13,3 C 12,8 C 93 % 1016,7 hPa 0,0 l/m 0 min 0 min 43 W/m 3,2 km/h (1 Bft) 100,00 %
16.07.2020 08:52 14,7 C 13,3 C 13,3 C 93 % 1016,7 hPa 0,0 l/m 0 min 0 min 48 W/m 6,4 km/h (2 Bft) 100,00 %
16.07.2020 08:54 14,7 C 13,3 C 13,3 C 93 % 1016,7 hPa 0,0 l/m 0 min 0 min 48 W/m 3,2 km/h (1 Bft) 100,00 %
16.07.2020 08:56 14,7 C 13,3 C 13,3 C 94 % 1016,7 hPa 0,0 l/m 0 min 0 min 45 W/m 3,2 km/h (1 Bft) 97,87 %
16.07.2020 08:58 14,7 C 13,3 C 13,3 C 94 % 1016,7 hPa 0,0 l/m 0 min 0 min 57 W/m 0,0 km/h (0 Bft) 95,74 %
16.07.2020 09:00 14,7 C 13,9 C 13,3 C 94 % 1016,7 hPa 0,0 l/m 0 min 0 min 62 W/m 3,2 km/h (1 Bft) 95,65 %
16.07.2020 09:02 14,7 C 13,9 C 13,3 C 94 % 1016,7 hPa 0,0 l/m 0 min 0 min 61 W/m 3,2 km/h (1 Bft) 97,92 %
16.07.2020 09:04 14,7 C 13,9 C 13,3 C 94 % 1016,7 hPa 0,0 l/m 0 min 0 min 58 W/m 3,2 km/h (1 Bft) 97,87 %
16.07.2020 09:06 14,7 C 13,9 C 13,3 C 94 % 1016,7 hPa 0,0 l/m 0 min 0 min 71 W/m 3,2 km/h (1 Bft) 97,87 %
16.07.2020 09:08 14,7 C 14,4 C 13,9 C 94 % 1016,7 hPa 0,0 l/m 0 min 0 min 84 W/m 6,4 km/h (2 Bft) 95,74 %
16.07.2020 09:10 14,7 C 14,4 C 13,9 C 94 % 1016,7 hPa 0,0 l/m 0 min 0 min 100 W/m 12,9 km/h (3 Bft) 97,87 %
16.07.2020 09:12 14,7 C 14,4 C 13,9 C 94 % 1016,7 hPa 0,0 l/m 0 min 0 min 86 W/m 3,2 km/h (1 Bft) 97,83 %
16.07.2020 09:14 14,7 C 14,4 C 13,9 C 94 % 1016,7 hPa 0,0 l/m 0 min 0 min 78 W/m 3,2 km/h (1 Bft) 93,62 %
16.07.2020 09:16 14,7 C 14,4 C 13,9 C 94 % 1016,7 hPa 0,0 l/m 0 min 0 min 66 W/m 3,2 km/h (1 Bft) 97,87 %
16.07.2020 09:18 14,7 C 14,4 C 13,9 C 95 % 1016,7 hPa 0,0 l/m 0 min 0 min 49 W/m 3,2 km/h (1 Bft) 95,74 %
16.07.2020 09:20 14,7 C 13,9 C 13,9 C 94 % 1016,7 hPa 0,0 l/m 0 min 0 min 46 W/m 12,9 km/h (3 Bft) 95,74 %
16.07.2020 09:22 14,7 C 13,9 C 13,3 C 94 % 1016,7 hPa 0,0 l/m 0 min 0 min 48 W/m 6,4 km/h (2 Bft) 97,83 %
16.07.2020 09:24 14,8 C 13,9 C 13,9 C 95 % 1016,7 hPa 0,0 l/m 0 min 0 min 46 W/m 0,0 km/h (0 Bft) 95,74 %
16.07.2020 09:26 14,8 C 13,9 C 13,9 C 95 % 1016,7 hPa 0,0 l/m 0 min 0 min 45 W/m 3,2 km/h (1 Bft) 95,74 %
16.07.2020 09:28 14,8 C 13,9 C 13,3 C 95 % 1016,7 hPa 0,0 l/m 0 min 0 min 48 W/m 6,4 km/h (2 Bft) 95,74 %
16.07.2020 09:30 14,8 C 13,9 C 13,9 C 95 % 1016,8 hPa 0,0 l/m 0 min 0 min 56 W/m 3,2 km/h (1 Bft) 89,36 %
16.07.2020 09:32 14,8 C 14,4 C 13,9 C 95 % 1016,7 hPa 0,0 l/m 0 min 0 min 52 W/m 6,4 km/h (2 Bft) 93,75 %
16.07.2020 09:34 14,8 C 14,4 C 13,9 C 95 % 1016,8 hPa 0,0 l/m 0 min 0 min 58 W/m 3,2 km/h (1 Bft) 93,48 %
16.07.2020 09:36 14,8 C 14,4 C 13,9 C 95 % 1016,8 hPa 0,0 l/m 0 min 0 min 63 W/m 3,2 km/h (1 Bft) 91,49 %
16.07.2020 09:38 14,8 C 14,4 C 13,9 C 95 % 1016,8 hPa 0,0 l/m 0 min 0 min 72 W/m 6,4 km/h (2 Bft) 93,62 %
16.07.2020 09:40 14,8 C 14,4 C 13,9 C 95 % 1016,8 hPa 0,0 l/m 0 min 0 min 71 W/m 3,2 km/h (1 Bft) 93,75 %
16.07.2020 09:42 14,8 C 15,0 C 13,9 C 95 % 1016,8 hPa 0,0 l/m 0 min 0 min 67 W/m 6,4 km/h (2 Bft) 91,49 %
16.07.2020 09:44 14,8 C 15,0 C 13,9 C 95 % 1016,8 hPa 0,0 l/m 0 min 0 min 68 W/m 3,2 km/h (1 Bft) 93,62 %
16.07.2020 09:46 14,8 C 14,4 C 13,9 C 95 % 1016,8 hPa 0,0 l/m 0 min 0 min 65 W/m 12,9 km/h (3 Bft) 95,74 %
16.07.2020 09:48 14,8 C 14,4 C 13,9 C 95 % 1016,8 hPa 0,0 l/m 0 min 0 min 56 W/m 12,9 km/h (3 Bft) 93,62 %
16.07.2020 09:50 14,8 C 14,4 C 13,9 C 95 % 1016,8 hPa 0,0 l/m 0 min 0 min 53 W/m 6,4 km/h (2 Bft) 93,62 %
16.07.2020 09:52 14,9 C 14,4 C 13,9 C 95 % 1016,8 hPa 0,0 l/m 0 min 0 min 55 W/m 3,2 km/h (1 Bft) 95,65 %
16.07.2020 09:54 14,9 C 15,0 C 14,4 C 95 % 1016,8 hPa 0,0 l/m 0 min 0 min 62 W/m 6,4 km/h (2 Bft) 93,62 %
16.07.2020 09:56 14,9 C 15,0 C 14,4 C 95 % 1016,8 hPa 0,0 l/m 0 min 0 min 68 W/m 12,9 km/h (3 Bft) 95,74 %
16.07.2020 09:58 14,9 C 15,0 C 14,4 C 95 % 1016,8 hPa 0,0 l/m 0 min 0 min 65 W/m 12,9 km/h (3 Bft) 95,74 %
16.07.2020 10:00 14,9 C 14,4 C 14,4 C 95 % 1016,8 hPa 0,0 l/m 0 min 0 min 73 W/m 12,9 km/h (3 Bft) 93,62 %
16.07.2020 10:02 15,0 C 14,4 C 13,9 C 95 % 1016,8 hPa 0,0 l/m 0 min 0 min 83 W/m 16,1 km/h (3 Bft) 95,65 %
16.07.2020 10:04 15,0 C 14,4 C 13,9 C 95 % 1016,8 hPa 0,0 l/m 0 min 0 min 93 W/m 6,4 km/h (2 Bft) 95,74 %
16.07.2020 10:06 15,1 C 14,4 C 13,9 C 95 % 1016,8 hPa 0,0 l/m 0 min 0 min 105 W/m 6,4 km/h (2 Bft) 95,74 %
16.07.2020 10:08 15,1 C 14,4 C 13,9 C 95 % 1016,8 hPa 0,0 l/m 0 min 0 min 119 W/m 3,2 km/h (1 Bft) 93,62 %
16.07.2020 10:10 15,1 C 15,0 C 14,4 C 95 % 1016,8 hPa 0,0 l/m 0 min 0 min 125 W/m 3,2 km/h (1 Bft) 93,62 %
16.07.2020 10:12 15,1 C 15,0 C 14,4 C 95 % 1016,8 hPa 0,0 l/m 0 min 0 min 116 W/m 3,2 km/h (1 Bft) 95,74 %
16.07.2020 10:14 15,2 C 15,6 C 14,4 C 95 % 1016,8 hPa 0,0 l/m 0 min 0 min 87 W/m 6,4 km/h (2 Bft) 95,65 %
16.07.2020 10:16 15,2 C 15,6 C 14,4 C 95 % 1016,8 hPa 0,0 l/m 0 min 0 min 74 W/m 3,2 km/h (1 Bft) 93,62 %
16.07.2020 10:18 15,2 C 15,0 C 14,4 C 95 % 1016,9 hPa 0,0 l/m 0 min 0 min 92 W/m 16,1 km/h (3 Bft) 95,74 %
16.07.2020 10:20 15,3 C 15,0 C 14,4 C 95 % 1016,8 hPa 0,0 l/m 0 min 0 min 96 W/m 6,4 km/h (2 Bft) 97,87 %
16.07.2020 10:22 15,3 C 15,0 C 14,4 C 95 % 1016,8 hPa 0,0 l/m 0 min 0 min 81 W/m 6,4 km/h (2 Bft) 97,87 %
16.07.2020 10:24 15,3 C 15,0 C 14,4 C 95 % 1016,9 hPa 0,0 l/m 0 min 0 min 75 W/m 6,4 km/h (2 Bft) 97,87 %
16.07.2020 10:26 15,3 C 14,4 C 14,4 C 95 % 1016,8 hPa 0,0 l/m 0 min 0 min 73 W/m 3,2 km/h (1 Bft) 95,65 %
16.07.2020 10:28 15,3 C 14,4 C 14,4 C 95 % 1016,9 hPa 0,0 l/m 0 min 0 min 92 W/m 6,4 km/h (2 Bft) 100,00 %
16.07.2020 10:30 15,4 C 14,4 C 13,9 C 96 % 1016,9 hPa 0,0 l/m 0 min 0 min 112 W/m 9,7 km/h (2 Bft) 100,00 %
16.07.2020 10:32 15,4 C 14,4 C 13,9 C 96 % 1016,9 hPa 0,0 l/m 0 min 0 min 111 W/m 6,4 km/h (2 Bft) 100,00 %
16.07.2020 10:34 15,4 C 14,4 C 13,9 C 96 % 1016,9 hPa 0,0 l/m 0 min 0 min 110 W/m 3,2 km/h (1 Bft) 100,00 %
16.07.2020 10:36 15,4 C 14,4 C 13,9 C 96 % 1016,9 hPa 0,0 l/m 0 min 0 min 106 W/m 3,2 km/h (1 Bft) 95,74 %
16.07.2020 10:38 15,4 C 14,4 C 13,9 C 96 % 1016,9 hPa 0,0 l/m 0 min 0 min 85 W/m 6,4 km/h (2 Bft) 100,00 %
16.07.2020 10:40 15,4 C 14,4 C 13,9 C 96 % 1016,9 hPa 0,2 l/m 0 min 2 min 104 W/m 3,2 km/h (1 Bft) 100,00 %
16.07.2020 10:42 15,5 C 14,4 C 13,9 C 96 % 1017,0 hPa 0,0 l/m 0 min 2 min 111 W/m 0,0 km/h (0 Bft) 100,00 %
16.07.2020 10:44 15,5 C 14,4 C 13,9 C 96 % 1016,9 hPa 0,0 l/m 0 min 2 min 125 W/m 6,4 km/h (2 Bft) 100,00 %
16.07.2020 10:46 15,5 C 14,4 C 13,9 C 96 % 1017,0 hPa 0,0 l/m 0 min 0 min 130 W/m 6,4 km/h (2 Bft) 97,83 %
16.07.2020 10:48 15,5 C 14,4 C 13,9 C 96 % 1017,0 hPa 0,0 l/m 0 min 0 min 141 W/m 3,2 km/h (1 Bft) 100,00 %
16.07.2020 10:50 15,6 C 14,4 C 14,4 C 96 % 1016,9 hPa 0,0 l/m 0 min 0 min 156 W/m 6,4 km/h (2 Bft) 100,00 %
16.07.2020 10:52 15,6 C 15,0 C 14,4 C 96 % 1016,9 hPa 0,0 l/m 0 min 2 min 167 W/m 9,7 km/h (2 Bft) 100,00 %
16.07.2020 10:54 15,6 C 15,0 C 14,4 C 96 % 1016,9 hPa 0,0 l/m 0 min 0 min 167 W/m 9,7 km/h (2 Bft) 100,00 %
16.07.2020 10:56 15,6 C 15,0 C 14,4 C 96 % 1016,9 hPa 0,0 l/m 0 min 0 min 189 W/m 3,2 km/h (1 Bft) 100,00 %
16.07.2020 10:58 15,7 C 15,0 C 14,4 C 96 % 1016,9 hPa 0,0 l/m 0 min 0 min 206 W/m 0,0 km/h (0 Bft) 100,00 %
16.07.2020 11:00 15,7 C 15,6 C 15,0 C 96 % 1016,9 hPa 0,0 l/m 0 min 0 min 170 W/m 3,2 km/h (1 Bft) 100,00 %
16.07.2020 11:02 15,7 C 15,0 C 15,0 C 96 % 1016,9 hPa 0,0 l/m 0 min 0 min 163 W/m 6,4 km/h (2 Bft) 100,00 %
16.07.2020 11:04 15,8 C 15,0 C 14,4 C 96 % 1017,0 hPa 0,0 l/m 0 min 0 min 165 W/m 12,9 km/h (3 Bft) 100,00 %
16.07.2020 11:06 15,8 C 14,4 C 14,4 C 96 % 1016,9 hPa 0,0 l/m 0 min 0 min 132 W/m 9,7 km/h (2 Bft) 100,00 %
16.07.2020 11:08 15,8 C 14,4 C 14,4 C 96 % 1016,9 hPa 0,0 l/m 0 min 0 min 102 W/m 6,4 km/h (2 Bft) 100,00 %
16.07.2020 11:10 15,7 C 14,4 C 13,9 C 96 % 1016,9 hPa 0,0 l/m 0 min 0 min 90 W/m 6,4 km/h (2 Bft) 97,14 %
16.07.2020 11:12 15,7 C 14,4 C 14,4 C 96 % 1016,9 hPa 0,0 l/m 0 min 0 min 101 W/m 6,4 km/h (2 Bft) 100,00 %
16.07.2020 11:14 15,7 C 14,4 C 14,4 C 96 % 1016,9 hPa 0,0 l/m 0 min 0 min 115 W/m 3,2 km/h (1 Bft) 100,00 %
16.07.2020 11:16 15,7 C 14,4 C 14,4 C 96 % 1016,9 hPa 0,0 l/m 0 min 0 min 127 W/m 9,7 km/h (2 Bft) 100,00 %
16.07.2020 11:18 15,7 C 14,4 C 14,4 C 96 % 1016,9 hPa 0,0 l/m 0 min 0 min 125 W/m 6,4 km/h (2 Bft) 100,00 %
16.07.2020 11:20 15,7 C 14,4 C 14,4 C 96 % 1016,9 hPa 0,0 l/m 0 min 0 min 115 W/m 6,4 km/h (2 Bft) 100,00 %
16.07.2020 11:22 15,7 C 14,4 C 14,4 C 96 % 1016,9 hPa 0,0 l/m 0 min 0 min 94 W/m 3,2 km/h (1 Bft) 100,00 %
16.07.2020 11:24 15,7 C 14,4 C 14,4 C 96 % 1017,0 hPa 0,0 l/m 0 min 0 min 95 W/m 0,0 km/h (0 Bft) 100,00 %
16.07.2020 11:26 15,7 C 14,4 C 14,4 C 96 % 1016,9 hPa 0,0 l/m 0 min 0 min 113 W/m 12,9 km/h (3 Bft) 100,00 %
16.07.2020 11:28 15,7 C 14,4 C 14,4 C 96 % 1016,9 hPa 0,0 l/m 0 min 0 min 102 W/m 12,9 km/h (3 Bft) 100,00 %
16.07.2020 11:30 15,7 C 14,4 C 13,9 C 96 % 1016,9 hPa 0,0 l/m 0 min 0 min 93 W/m 6,4 km/h (2 Bft) 100,00 %
16.07.2020 11:32 15,7 C 14,4 C 13,9 C 96 % 1017,0 hPa 0,0 l/m 0 min 0 min 95 W/m 9,7 km/h (2 Bft) 100,00 %
16.07.2020 11:34 15,7 C 14,4 C 13,9 C 96 % 1017,0 hPa 0,0 l/m 0 min 0 min 91 W/m 6,4 km/h (2 Bft) 100,00 %
16.07.2020 11:36 15,7 C 14,4 C 14,4 C 96 % 1017,0 hPa 0,2 l/m 0 min 0 min 98 W/m 3,2 km/h (1 Bft) 98,04 %
16.07.2020 11:38 15,7 C 14,4 C 13,9 C 96 % 1017,0 hPa 0,0 l/m 0 min 0 min 110 W/m 12,9 km/h (3 Bft) 100,00 %
16.07.2020 11:40 15,6 C 14,4 C 14,4 C 96 % 1017,0 hPa 0,0 l/m 0 min 0 min 141 W/m 12,9 km/h (3 Bft) 95,74 %
16.07.2020 11:42 15,7 C 15,0 C 14,4 C 96 % 1017,0 hPa 0,0 l/m 0 min 0 min 182 W/m 6,4 km/h (2 Bft) 97,83 %
16.07.2020 11:44 15,7 C 15,6 C 15,0 C 96 % 1017,0 hPa 0,0 l/m 0 min 0 min 222 W/m 3,2 km/h (1 Bft) 97,87 %
16.07.2020 11:46 15,7 C 15,6 C 15,0 C 96 % 1016,9 hPa 0,0 l/m 0 min 0 min 241 W/m 6,4 km/h (2 Bft) 97,87 %
16.07.2020 11:48 15,7 C 15,6 C 15,0 C 97 % 1017,0 hPa 0,0 l/m 0 min 0 min 251 W/m 9,7 km/h (2 Bft) 95,74 %
16.07.2020 11:50 15,8 C 15,6 C 15,0 C 97 % 1017,0 hPa 0,0 l/m 0 min 0 min 239 W/m 6,4 km/h (2 Bft) 95,74 %
16.07.2020 11:52 15,8 C 15,6 C 15,0 C 97 % 1016,9 hPa 0,0 l/m 0 min 0 min 170 W/m 3,2 km/h (1 Bft) 97,87 %
16.07.2020 11:54 15,8 C 16,1 C 15,0 C 97 % 1017,0 hPa 0,0 l/m 0 min 0 min 152 W/m 6,4 km/h (2 Bft) 97,83 %
16.07.2020 11:56 15,9 C 16,1 C 15,0 C 97 % 1017,0 hPa 0,0 l/m 0 min 0 min 175 W/m 6,4 km/h (2 Bft) 97,87 %
16.07.2020 11:58 15,9 C 16,1 C 15,0 C 97 % 1017,0 hPa 0,0 l/m 0 min 0 min 189 W/m 6,4 km/h (2 Bft) 97,87 %
16.07.2020 12:00 15,9 C 15,6 C 15,0 C 97 % 1017,0 hPa 0,0 l/m 0 min 0 min 139 W/m 12,9 km/h (3 Bft) 95,74 %
16.07.2020 12:02 15,9 C 15,6 C 15,0 C 97 % 1017,0 hPa 0,0 l/m 0 min 0 min 121 W/m 6,4 km/h (2 Bft) 97,87 %
16.07.2020 12:04 15,9 C 15,6 C 15,0 C 97 % 1017,0 hPa 0,0 l/m 0 min 0 min 116 W/m 9,7 km/h (2 Bft) 97,87 %
16.07.2020 12:08 15,9 C 15,6 C 15,0 C 97 % 1017,0 hPa 0,0 l/m 0 min 0 min 102 W/m 12,9 km/h (3 Bft) 94,68 %
16.07.2020 12:10 15,9 C 15,6 C 15,0 C 97 % 1017,0 hPa 0,0 l/m 0 min 0 min 133 W/m 12,9 km/h (3 Bft) 97,87 %
16.07.2020 12:12 15,9 C 15,6 C 15,0 C 97 % 1017,0 hPa 0,0 l/m 0 min 0 min 175 W/m 9,7 km/h (2 Bft) 95,65 %
16.07.2020 12:14 16,0 C 16,1 C 15,0 C 97 % 1017,0 hPa 0,0 l/m 0 min 0 min 198 W/m 16,1 km/h (3 Bft) 95,74 %
16.07.2020 12:16 16,1 C 16,1 C 15,0 C 97 % 1017,0 hPa 0,0 l/m 0 min 0 min 183 W/m 12,9 km/h (3 Bft) 97,87 %
16.07.2020 12:18 16,1 C 16,1 C 15,0 C 97 % 1017,0 hPa 0,0 l/m 0 min 0 min 191 W/m 12,9 km/h (3 Bft) 95,74 %
16.07.2020 12:20 16,1 C 16,1 C 15,6 C 97 % 1016,9 hPa 0,0 l/m 0 min 0 min 216 W/m 12,9 km/h (3 Bft) 93,62 %
16.07.2020 12:22 16,1 C 16,7 C 15,6 C 97 % 1016,9 hPa 0,0 l/m 0 min 0 min 193 W/m 12,9 km/h (3 Bft) 95,65 %
16.07.2020 12:24 16,1 C 16,1 C 15,6 C 97 % 1016,9 hPa 0,0 l/m 0 min 0 min 129 W/m 9,7 km/h (2 Bft) 95,74 %
16.07.2020 12:26 16,2 C 16,1 C 15,6 C 97 % 1017,0 hPa 0,0 l/m 0 min 0 min 90 W/m 6,4 km/h (2 Bft) 100,00 %
16.07.2020 12:28 16,2 C 15,6 C 15,6 C 97 % 1016,9 hPa 0,0 l/m 0 min 0 min 84 W/m 6,4 km/h (2 Bft) 95,74 %
16.07.2020 12:30 16,2 C 15,6 C 15,0 C 97 % 1016,9 hPa 0,0 l/m 0 min 0 min 76 W/m 9,7 km/h (2 Bft) 95,74 %
16.07.2020 12:32 16,2 C 15,6 C 15,0 C 97 % 1016,9 hPa 0,0 l/m 0 min 0 min 67 W/m 3,2 km/h (1 Bft) 95,74 %
16.07.2020 12:34 16,2 C 15,6 C 15,0 C 97 % 1016,9 hPa 0,0 l/m 0 min 2 min 74 W/m 6,4 km/h (2 Bft) 95,65 %
16.07.2020 12:36 16,2 C 15,6 C 15,0 C 97 % 1016,9 hPa 0,0 l/m 0 min 0 min 99 W/m 6,4 km/h (2 Bft) 97,87 %
16.07.2020 12:38 16,3 C 15,6 C 15,0 C 97 % 1016,9 hPa 0,0 l/m 0 min 0 min 124 W/m 9,7 km/h (2 Bft) 95,74 %
16.07.2020 12:40 16,3 C 15,6 C 15,0 C 97 % 1016,9 hPa 0,0 l/m 0 min 0 min 138 W/m 19,3 km/h (3 Bft) 97,62 %
16.07.2020 12:42 16,3 C 15,6 C 15,0 C 97 % 1016,9 hPa 0,0 l/m 0 min 0 min 129 W/m 3,2 km/h (1 Bft) 93,48 %
16.07.2020 12:44 16,3 C 16,1 C 15,6 C 97 % 1016,9 hPa 0,0 l/m 0 min 0 min 120 W/m 3,2 km/h (1 Bft) 95,74 %
16.07.2020 12:46 16,3 C 16,1 C 15,6 C 96 % 1016,9 hPa 0,0 l/m 0 min 0 min 113 W/m 3,2 km/h (1 Bft) 97,87 %
16.07.2020 12:48 16,4 C 16,1 C 15,6 C 96 % 1016,9 hPa 0,0 l/m 0 min 0 min 116 W/m 3,2 km/h (1 Bft) 97,87 %
16.07.2020 12:50 16,4 C 16,1 C 15,6 C 96 % 1016,9 hPa 0,0 l/m 0 min 0 min 119 W/m 3,2 km/h (1 Bft) 95,74 %
16.07.2020 12:52 16,4 C 16,1 C 15,6 C 97 % 1016,9 hPa 0,0 l/m 0 min 0 min 144 W/m 12,9 km/h (3 Bft) 93,62 %
16.07.2020 12:54 16,5 C 16,7 C 15,6 C 97 % 1016,9 hPa 0,0 l/m 0 min 0 min 159 W/m 6,4 km/h (2 Bft) 95,65 %
16.07.2020 12:56 16,6 C 16,7 C 15,6 C 97 % 1016,9 hPa 0,0 l/m 0 min 0 min 153 W/m 6,4 km/h (2 Bft) 95,74 %
16.07.2020 12:58 16,6 C 16,7 C 15,6 C 97 % 1016,9 hPa 0,0 l/m 0 min 0 min 164 W/m 6,4 km/h (2 Bft) 95,74 %
16.07.2020 13:00 16,6 C 16,7 C 15,6 C 97 % 1016,9 hPa 0,0 l/m 0 min 0 min 193 W/m 12,9 km/h (3 Bft) 95,74 %
16.07.2020 13:02 16,6 C 16,7 C 16,1 C 97 % 1016,9 hPa 0,0 l/m 0 min 0 min 168 W/m 6,4 km/h (2 Bft) 93,62 %
16.07.2020 13:04 16,7 C 17,2 C 16,1 C 96 % 1017,0 hPa 0,0 l/m 0 min 0 min 157 W/m 6,4 km/h (2 Bft) 95,74 %
16.07.2020 13:06 16,7 C 16,7 C 16,1 C 96 % 1017,0 hPa 0,0 l/m 0 min 0 min 168 W/m 6,4 km/h (2 Bft) 95,65 %
16.07.2020 13:08 16,7 C 16,7 C 16,1 C 96 % 1017,0 hPa 0,0 l/m 0 min 0 min 174 W/m 12,9 km/h (3 Bft) 94,92 %
16.07.2020 13:10 16,8 C 16,7 C 16,1 C 96 % 1017,0 hPa 0,0 l/m 0 min 0 min 146 W/m 6,4 km/h (2 Bft) 97,14 %
16.07.2020 13:12 16,8 C 16,7 C 16,1 C 96 % 1017,0 hPa 0,0 l/m 0 min 0 min 112 W/m 6,4 km/h (2 Bft) 95,74 %
16.07.2020 13:14 16,8 C 16,7 C 16,1 C 96 % 1017,0 hPa 0,0 l/m 0 min 0 min 93 W/m 3,2 km/h (1 Bft) 93,62 %
16.07.2020 13:16 16,8 C 16,7 C 15,6 C 96 % 1017,0 hPa 0,0 l/m 0 min 0 min 76 W/m 3,2 km/h (1 Bft) 93,48 %
16.07.2020 13:18 16,9 C 16,7 C 15,6 C 96 % 1017,0 hPa 0,0 l/m 0 min 0 min 66 W/m 0,0 km/h (0 Bft) 93,62 %
16.07.2020 13:20 16,9 C 16,1 C 15,6 C 96 % 1017,0 hPa 0,0 l/m 0 min 0 min 69 W/m 6,4 km/h (2 Bft) 95,74 %
16.07.2020 13:22 16,9 C 16,1 C 15,6 C 96 % 1017,0 hPa 0,0 l/m 0 min 0 min 72 W/m 3,2 km/h (1 Bft) 95,74 %
16.07.2020 13:24 16,9 C 16,1 C 15,6 C 96 % 1017,0 hPa 0,0 l/m 0 min 0 min 85 W/m 3,2 km/h (1 Bft) 97,87 %
16.07.2020 13:26 16,9 C 16,7 C 16,1 C 95 % 1017,0 hPa 0,0 l/m 0 min 0 min 112 W/m 3,2 km/h (1 Bft) 97,87 %
16.07.2020 13:28 16,9 C 16,7 C 16,1 C 95 % 1016,9 hPa 0,0 l/m 0 min 0 min 163 W/m 6,4 km/h (2 Bft) 97,87 %
16.07.2020 13:30 16,9 C 17,2 C 16,1 C 95 % 1017,0 hPa 0,0 l/m 0 min 0 min 204 W/m 9,7 km/h (2 Bft) 97,83 %
16.07.2020 13:32 17,0 C 17,8 C 16,7 C 95 % 1016,9 hPa 0,0 l/m 0 min 0 min 250 W/m 3,2 km/h (1 Bft) 97,87 %
16.07.2020 13:34 17,1 C 18,3 C 16,7 C 95 % 1016,9 hPa 0,0 l/m 0 min 0 min 287 W/m 3,2 km/h (1 Bft) 97,87 %
16.07.2020 13:36 17,1 C 18,9 C 17,2 C 95 % 1016,9 hPa 0,0 l/m 0 min 0 min 281 W/m 6,4 km/h (2 Bft) 97,87 %
16.07.2020 13:38 17,1 C 18,9 C 17,2 C 95 % 1016,9 hPa 0,0 l/m 0 min 0 min 275 W/m 3,2 km/h (1 Bft) 97,87 %
16.07.2020 13:40 17,1 C 19,4 C 17,2 C 95 % 1016,9 hPa 0,0 l/m 0 min 0 min 273 W/m 6,4 km/h (2 Bft) 98,00 %
16.07.2020 13:42 17,2 C 19,4 C 17,2 C 95 % 1016,9 hPa 0,0 l/m 0 min 0 min 254 W/m 3,2 km/h (1 Bft) 97,87 %
16.07.2020 13:44 17,2 C 19,4 C 17,2 C 95 % 1016,8 hPa 0,0 l/m 0 min 0 min 236 W/m 3,2 km/h (1 Bft) 95,83 %
16.07.2020 13:45 17,3 C 19,4 C 17,2 C 95 % 1016,8 hPa 0,0 l/m 0 min 0 min 241 W/m 6,4 km/h (2 Bft) 100,00 %
16.07.2020 13:50 17,4 C 18,9 C 17,2 C 94 % 1016,8 hPa 0,0 l/m 0 min 0 min 213 W/m 16,1 km/h (3 Bft) 100,00 %
16.07.2020 13:55 17,6 C 18,9 C 17,2 C 94 % 1016,8 hPa 0,0 l/m 0 min 0 min 208 W/m 12,9 km/h (3 Bft) 100,00 %
16.07.2020 14:00 17,6 C 17,8 C 16,7 C 93 % 1016,8 hPa 0,0 l/m 0 min 0 min 84 W/m 16,1 km/h (3 Bft) 100,00 %
16.07.2020 14:05 17,6 C 17,2 C 16,7 C 92 % 1016,8 hPa 0,0 l/m 0 min 0 min 55 W/m 9,7 km/h (2 Bft) 100,00 %
16.07.2020 14:10 17,6 C 16,7 C 16,1 C 91 % 1016,8 hPa 0,0 l/m 0 min 0 min 61 W/m 6,4 km/h (2 Bft) 100,00 %
16.07.2020 14:15 17,6 C 17,2 C 16,1 C 91 % 1016,9 hPa 0,0 l/m 0 min 0 min 90 W/m 6,4 km/h (2 Bft) 100,00 %
16.07.2020 14:20 17,6 C 17,2 C 16,1 C 91 % 1016,9 hPa 0,0 l/m 0 min 5 min 85 W/m 3,2 km/h (1 Bft) 100,00 %
16.07.2020 14:46 17,9 C 19,4 C 17,2 C 93 % 1016,8 hPa 0,0 l/m 5 min 0 min 436 W/m 6,4 km/h (2 Bft) 98,04 %
16.07.2020 14:48 17,9 C 20,6 C 17,8 C 93 % 1016,9 hPa 0,0 l/m 2 min 0 min 507 W/m 6,4 km/h (2 Bft) 97,87 %
16.07.2020 14:50 18,1 C 21,7 C 18,3 C 93 % 1016,9 hPa 0,0 l/m 2 min 0 min 503 W/m 6,4 km/h (2 Bft) 97,87 %
16.07.2020 14:52 18,2 C 21,7 C 18,3 C 93 % 1016,8 hPa 0,0 l/m 2 min 0 min 442 W/m 9,7 km/h (2 Bft) 97,87 %
16.07.2020 14:54 18,3 C 21,7 C 18,9 C 92 % 1016,8 hPa 0,0 l/m 0 min 0 min 374 W/m 6,4 km/h (2 Bft) 97,87 %
16.07.2020 14:56 18,4 C 22,2 C 18,9 C 92 % 1016,8 hPa 0,0 l/m 0 min 0 min 384 W/m 6,4 km/h (2 Bft) 97,87 %
16.07.2020 14:58 18,4 C 21,7 C 18,9 C 92 % 1016,9 hPa 0,0 l/m 0 min 0 min 353 W/m 6,4 km/h (2 Bft) 97,87 %
16.07.2020 15:00 18,6 C 21,1 C 18,9 C 91 % 1016,9 hPa 0,0 l/m 2 min 0 min 413 W/m 9,7 km/h (2 Bft) 100,00 %
16.07.2020 15:02 18,6 C 21,1 C 18,9 C 90 % 1016,8 hPa 0,0 l/m 0 min 0 min 390 W/m 12,9 km/h (3 Bft) 97,87 %
16.07.2020 15:04 18,6 C 21,1 C 18,9 C 90 % 1016,9 hPa 0,0 l/m 0 min 0 min 346 W/m 6,4 km/h (2 Bft) 97,87 %
16.07.2020 15:06 18,7 C 21,1 C 18,9 C 89 % 1016,8 hPa 0,0 l/m 0 min 0 min 346 W/m 6,4 km/h (2 Bft) 100,00 %
16.07.2020 15:08 18,8 C 21,1 C 18,9 C 89 % 1016,8 hPa 0,0 l/m 0 min 0 min 345 W/m 6,4 km/h (2 Bft) 100,00 %
16.07.2020 15:10 18,8 C 20,6 C 18,9 C 89 % 1016,8 hPa 0,0 l/m 0 min 0 min 373 W/m 6,4 km/h (2 Bft) 100,00 %
16.07.2020 15:12 18,9 C 20,6 C 18,9 C 88 % 1016,8 hPa 0,0 l/m 0 min 0 min 371 W/m 12,9 km/h (3 Bft) 100,00 %
16.07.2020 15:14 18,9 C 20,6 C 18,9 C 87 % 1016,8 hPa 0,0 l/m 0 min 0 min 322 W/m 6,4 km/h (2 Bft) 97,87 %
16.07.2020 15:16 19,1 C 21,1 C 18,9 C 87 % 1016,8 hPa 0,0 l/m 0 min 0 min 286 W/m 6,4 km/h (2 Bft) 100,00 %
16.07.2020 15:18 19,1 C 21,1 C 18,9 C 87 % 1016,8 hPa 0,0 l/m 0 min 0 min 288 W/m 6,4 km/h (2 Bft) 100,00 %
16.07.2020 15:20 19,2 C 21,1 C 18,9 C 87 % 1016,8 hPa 0,0 l/m 0 min 0 min 302 W/m 3,2 km/h (1 Bft) 100,00 %
16.07.2020 15:22 19,3 C 21,7 C 18,9 C 87 % 1016,8 hPa 0,0 l/m 0 min 0 min 288 W/m 3,2 km/h (1 Bft) 97,87 %
16.07.2020 15:24 19,3 C 21,1 C 18,9 C 87 % 1016,8 hPa 0,0 l/m 0 min 0 min 220 W/m 6,4 km/h (2 Bft) 97,83 %
16.07.2020 15:26 19,4 C 20,6 C 18,9 C 87 % 1016,8 hPa 0,0 l/m 0 min 0 min 137 W/m 12,9 km/h (3 Bft) 97,87 %
16.07.2020 15:28 19,4 C 20,0 C 18,3 C 86 % 1016,8 hPa 0,0 l/m 0 min 0 min 90 W/m 6,4 km/h (2 Bft) 95,74 %
16.07.2020 15:30 19,4 C 19,4 C 18,3 C 86 % 1016,7 hPa 0,0 l/m 0 min 0 min 76 W/m 3,2 km/h (1 Bft) 95,74 %
16.07.2020 15:32 19,4 C 18,9 C 17,8 C 85 % 1016,8 hPa 0,0 l/m 0 min 0 min 68 W/m 3,2 km/h (1 Bft) 100,00 %
16.07.2020 15:34 19,4 C 18,9 C 17,8 C 85 % 1016,8 hPa 0,0 l/m 0 min 0 min 62 W/m 3,2 km/h (1 Bft) 100,00 %
16.07.2020 15:36 19,4 C 18,3 C 17,2 C 85 % 1016,8 hPa 0,0 l/m 0 min 0 min 56 W/m 3,2 km/h (1 Bft) 97,87 %
16.07.2020 15:38 19,4 C 18,3 C 17,2 C 85 % 1016,8 hPa 0,0 l/m 0 min 0 min 57 W/m 6,4 km/h (2 Bft) 95,74 %
16.07.2020 15:40 19,4 C 18,3 C 17,2 C 85 % 1016,8 hPa 0,0 l/m 0 min 0 min 62 W/m 3,2 km/h (1 Bft) 98,11 %
16.07.2020 15:42 19,3 C 18,3 C 17,2 C 85 % 1016,8 hPa 0,0 l/m 0 min 0 min 65 W/m 6,4 km/h (2 Bft) 100,00 %
16.07.2020 15:44 19,3 C 18,3 C 17,2 C 85 % 1016,9 hPa 0,0 l/m 0 min 0 min 69 W/m 0,0 km/h (0 Bft) 100,00 %
16.07.2020 15:46 19,3 C 18,3 C 17,2 C 85 % 1016,9 hPa 0,0 l/m 0 min 0 min 76 W/m 3,2 km/h (1 Bft) 95,74 %
16.07.2020 15:48 19,3 C 18,3 C 16,7 C 85 % 1016,9 hPa 0,0 l/m 0 min 0 min 87 W/m 3,2 km/h (1 Bft) 97,83 %
16.07.2020 15:50 19,2 C 18,3 C 17,2 C 85 % 1016,9 hPa 0,0 l/m 0 min 0 min 97 W/m 3,2 km/h (1 Bft) 100,00 %
16.07.2020 15:52 19,2 C 18,3 C 17,2 C 85 % 1016,9 hPa 0,0 l/m 0 min 0 min 110 W/m 3,2 km/h (1 Bft) 97,87 %
16.07.2020 15:54 19,1 C 18,3 C 17,2 C 85 % 1016,8 hPa 0,0 l/m 0 min 0 min 123 W/m 6,4 km/h (2 Bft) 95,74 %
16.07.2020 15:56 19,1 C 18,3 C 17,2 C 84 % 1016,8 hPa 0,0 l/m 0 min 0 min 120 W/m 6,4 km/h (2 Bft) 95,74 %
16.07.2020 15:58 19,1 C 18,9 C 17,2 C 85 % 1016,9 hPa 0,0 l/m 0 min 0 min 111 W/m 3,2 km/h (1 Bft) 95,74 %
16.07.2020 16:00 19,1 C 18,3 C 17,2 C 85 % 1016,9 hPa 0,0 l/m 0 min 0 min 99 W/m 3,2 km/h (1 Bft) 93,48 %
16.07.2020 16:02 19,1 C 18,3 C 17,2 C 85 % 1016,9 hPa 0,0 l/m 0 min 0 min 65 W/m 3,2 km/h (1 Bft) 95,83 %
16.07.2020 16:04 19,1 C 17,8 C 17,2 C 86 % 1016,9 hPa 0,0 l/m 0 min 0 min 48 W/m 9,7 km/h (2 Bft) 95,74 %
16.07.2020 16:06 19,1 C 17,8 C 16,7 C 86 % 1016,9 hPa 0,0 l/m 0 min 2 min 47 W/m 0,0 km/h (0 Bft) 95,74 %
16.07.2020 16:08 19,0 C 17,2 C 16,7 C 87 % 1016,9 hPa 0,0 l/m 0 min 2 min 54 W/m 3,2 km/h (1 Bft) 95,74 %
16.07.2020 16:10 19,0 C 17,2 C 16,7 C 87 % 1016,9 hPa 0,0 l/m 0 min 2 min 72 W/m 0,0 km/h (0 Bft) 95,74 %
16.07.2020 16:12 19,0 C 17,2 C 16,1 C 87 % 1017,0 hPa 0,0 l/m 0 min 2 min 92 W/m 3,2 km/h (1 Bft) 93,48 %
16.07.2020 16:14 19,0 C 17,2 C 16,7 C 88 % 1016,9 hPa 0,0 l/m 0 min 0 min 100 W/m 0,0 km/h (0 Bft) 93,62 %
16.07.2020 16:16 18,9 C 17,2 C 16,7 C 88 % 1016,9 hPa 0,0 l/m 0 min 0 min 101 W/m 0,0 km/h (0 Bft) 95,74 %
16.07.2020 16:18 18,9 C 17,2 C 16,7 C 88 % 1017,0 hPa 0,0 l/m 0 min 0 min 97 W/m 0,0 km/h (0 Bft) 93,62 %
16.07.2020 16:20 18,9 C 17,2 C 16,7 C 88 % 1017,0 hPa 0,0 l/m 0 min 0 min 89 W/m 0,0 km/h (0 Bft) 95,74 %
16.07.2020 16:22 18,9 C 17,2 C 16,7 C 88 % 1016,9 hPa 0,0 l/m 0 min 0 min 84 W/m 6,4 km/h (2 Bft) 93,62 %
16.07.2020 16:24 18,9 C 17,2 C 16,7 C 88 % 1017,0 hPa 0,0 l/m 0 min 0 min 83 W/m 6,4 km/h (2 Bft) 95,65 %
16.07.2020 16:26 18,8 C 17,2 C 16,7 C 89 % 1017,0 hPa 0,0 l/m 0 min 0 min 83 W/m 3,2 km/h (1 Bft) 97,87 %
16.07.2020 16:28 18,8 C 17,2 C 16,7 C 89 % 1017,1 hPa 0,0 l/m 0 min 0 min 78 W/m 6,4 km/h (2 Bft) 95,74 %
16.07.2020 16:30 18,8 C 17,2 C 16,7 C 89 % 1017,1 hPa 0,0 l/m 0 min 2 min 71 W/m 6,4 km/h (2 Bft) 95,74 %
16.07.2020 16:32 18,7 C 16,7 C 16,7 C 89 % 1017,1 hPa 0,0 l/m 0 min 2 min 59 W/m 9,7 km/h (2 Bft) 95,74 %
16.07.2020 16:34 18,7 C 16,1 C 16,1 C 89 % 1017,1 hPa 0,2 l/m 0 min 2 min 49 W/m 3,2 km/h (1 Bft) 97,83 %
16.07.2020 16:36 18,7 C 16,1 C 16,1 C 90 % 1017,2 hPa 0,0 l/m 0 min 2 min 45 W/m 3,2 km/h (1 Bft) 95,74 %
16.07.2020 16:38 18,6 C 16,1 C 16,1 C 89 % 1017,1 hPa 0,0 l/m 0 min 2 min 44 W/m 3,2 km/h (1 Bft) 95,74 %
16.07.2020 16:40 18,6 C 16,1 C 16,1 C 90 % 1017,1 hPa 0,0 l/m 0 min 2 min 38 W/m 3,2 km/h (1 Bft) 95,74 %
16.07.2020 16:42 18,6 C 15,6 C 15,6 C 90 % 1017,2 hPa 0,0 l/m 0 min 2 min 32 W/m 3,2 km/h (1 Bft) 95,74 %
16.07.2020 16:44 18,5 C 15,6 C 15,6 C 90 % 1017,2 hPa 0,2 l/m 0 min 2 min 27 W/m 3,2 km/h (1 Bft) 95,74 %
16.07.2020 16:46 18,5 C 15,6 C 15,6 C 90 % 1017,3 hPa 0,0 l/m 0 min 2 min 28 W/m 3,2 km/h (1 Bft) 95,65 %
16.07.2020 16:48 18,4 C 15,6 C 15,6 C 91 % 1017,3 hPa 0,4 l/m 0 min 2 min 28 W/m 6,4 km/h (2 Bft) 93,62 %
16.07.2020 16:50 18,3 C 15,6 C 15,6 C 91 % 1017,4 hPa 0,8 l/m 0 min 2 min 27 W/m 6,4 km/h (2 Bft) 95,00 %
16.07.2020 16:52 18,2 C 15,0 C 15,0 C 91 % 1017,4 hPa 0,6 l/m 0 min 2 min 28 W/m 6,4 km/h (2 Bft) 100,00 %
16.07.2020 16:54 18,1 C 15,0 C 15,0 C 91 % 1017,4 hPa 0,0 l/m 0 min 2 min 36 W/m 9,7 km/h (2 Bft) 97,87 %
16.07.2020 16:56 18,1 C 15,0 C 15,0 C 91 % 1017,4 hPa 0,0 l/m 0 min 2 min 47 W/m 6,4 km/h (2 Bft) 95,65 %
16.07.2020 16:58 17,9 C 15,0 C 15,0 C 91 % 1017,4 hPa 0,0 l/m 0 min 0 min 55 W/m 6,4 km/h (2 Bft) 97,87 %
16.07.2020 17:00 17,8 C 15,0 C 15,0 C 91 % 1017,4 hPa 0,2 l/m 0 min 0 min 65 W/m 3,2 km/h (1 Bft) 97,87 %
16.07.2020 17:02 17,8 C 15,0 C 15,0 C 91 % 1017,5 hPa 0,0 l/m 0 min 0 min 75 W/m 3,2 km/h (1 Bft) 97,87 %
16.07.2020 17:04 17,7 C 15,0 C 15,0 C 92 % 1017,5 hPa 0,0 l/m 0 min 2 min 81 W/m 0,0 km/h (0 Bft) 97,87 %
16.07.2020 17:06 17,6 C 15,0 C 15,0 C 92 % 1017,5 hPa 0,0 l/m 0 min 0 min 88 W/m 6,4 km/h (2 Bft) 95,74 %
16.07.2020 17:08 17,6 C 15,6 C 15,0 C 92 % 1017,5 hPa 0,0 l/m 0 min 2 min 94 W/m 3,2 km/h (1 Bft) 97,83 %
16.07.2020 17:10 17,6 C 15,6 C 15,0 C 92 % 1017,5 hPa 0,0 l/m 0 min 0 min 98 W/m 3,2 km/h (1 Bft) 95,74 %
16.07.2020 17:12 17,6 C 15,6 C 15,0 C 92 % 1017,5 hPa 0,0 l/m 0 min 0 min 93 W/m 0,0 km/h (0 Bft) 97,87 %
16.07.2020 17:14 17,5 C 15,6 C 15,0 C 92 % 1017,5 hPa 0,0 l/m 0 min 0 min 81 W/m 6,4 km/h (2 Bft) 95,74 %
16.07.2020 17:16 17,4 C 15,6 C 15,0 C 93 % 1017,6 hPa 0,0 l/m 0 min 0 min 72 W/m 6,4 km/h (2 Bft) 95,74 %
16.07.2020 17:18 17,4 C 15,0 C 15,0 C 93 % 1017,5 hPa 0,0 l/m 0 min 0 min 65 W/m 3,2 km/h (1 Bft) 95,74 %
16.07.2020 17:20 17,4 C 15,0 C 15,0 C 93 % 1017,6 hPa 0,0 l/m 0 min 0 min 60 W/m 3,2 km/h (1 Bft) 97,83 %
16.07.2020 17:22 17,3 C 15,0 C 15,0 C 93 % 1017,5 hPa 0,0 l/m 0 min 0 min 60 W/m 3,2 km/h (1 Bft) 97,87 %
16.07.2020 17:24 17,3 C 15,0 C 15,0 C 93 % 1017,5 hPa 0,0 l/m 0 min 0 min 64 W/m 6,4 km/h (2 Bft) 97,87 %
16.07.2020 17:26 17,2 C 15,0 C 15,0 C 93 % 1017,6 hPa 0,0 l/m 0 min 0 min 69 W/m 9,7 km/h (2 Bft) 95,74 %
16.07.2020 17:28 17,1 C 15,0 C 15,0 C 93 % 1017,6 hPa 0,0 l/m 0 min 0 min 71 W/m 3,2 km/h (1 Bft) 97,87 %
16.07.2020 17:30 17,1 C 15,0 C 15,0 C 94 % 1017,5 hPa 0,0 l/m 0 min 0 min 72 W/m 6,4 km/h (2 Bft) 97,87 %
16.07.2020 17:32 17,0 C 15,0 C 15,0 C 94 % 1017,5 hPa 0,0 l/m 0 min 0 min 70 W/m 6,4 km/h (2 Bft) 95,65 %
16.07.2020 17:34 16,9 C 15,0 C 15,0 C 94 % 1017,6 hPa 0,0 l/m 0 min 0 min 69 W/m 0,0 km/h (0 Bft) 97,87 %
16.07.2020 17:36 16,9 C 15,0 C 15,0 C 94 % 1017,6 hPa 0,0 l/m 0 min 0 min 70 W/m 0,0 km/h (0 Bft) 93,62 %
16.07.2020 17:38 16,8 C 15,0 C 15,0 C 94 % 1017,6 hPa 0,0 l/m 0 min 0 min 75 W/m 6,4 km/h (2 Bft) 100,00 %
16.07.2020 17:40 16,8 C 15,0 C 15,0 C 94 % 1017,5 hPa 0,0 l/m 0 min 0 min 76 W/m 3,2 km/h (1 Bft) 100,00 %
16.07.2020 17:42 16,7 C 15,0 C 15,0 C 94 % 1017,5 hPa 0,0 l/m 0 min 0 min 76 W/m 6,4 km/h (2 Bft) 100,00 %
16.07.2020 17:44 16,7 C 15,0 C 15,0 C 94 % 1017,5 hPa 0,0 l/m 0 min 0 min 79 W/m 0,0 km/h (0 Bft) 100,00 %
16.07.2020 17:46 16,7 C 15,0 C 15,0 C 94 % 1017,5 hPa 0,0 l/m 0 min 0 min 84 W/m 0,0 km/h (0 Bft) 95,74 %
16.07.2020 17:48 16,6 C 15,0 C 15,0 C 94 % 1017,6 hPa 0,0 l/m 0 min 0 min 89 W/m 3,2 km/h (1 Bft) 100,00 %
16.07.2020 17:50 16,6 C 15,0 C 15,0 C 94 % 1017,5 hPa 0,0 l/m 0 min 0 min 91 W/m 3,2 km/h (1 Bft) 100,00 %
16.07.2020 17:52 16,6 C 15,0 C 15,0 C 94 % 1017,5 hPa 0,0 l/m 0 min 0 min 98 W/m 0,0 km/h (0 Bft) 97,87 %
16.07.2020 17:54 16,6 C 15,6 C 15,0 C 95 % 1017,5 hPa 0,0 l/m 0 min 0 min 103 W/m 0,0 km/h (0 Bft) 97,83 %
16.07.2020 17:56 16,6 C 15,6 C 15,0 C 95 % 1017,5 hPa 0,0 l/m 0 min 0 min 105 W/m 0,0 km/h (0 Bft) 100,00 %
16.07.2020 17:58 16,6 C 15,6 C 15,0 C 95 % 1017,5 hPa 0,0 l/m 0 min 0 min 106 W/m 0,0 km/h (0 Bft) 100,00 %
16.07.2020 18:00 16,6 C 15,6 C 15,0 C 95 % 1017,5 hPa 0,0 l/m 0 min 0 min 106 W/m 0,0 km/h (0 Bft) 100,00 %
16.07.2020 18:02 16,6 C 15,6 C 15,0 C 95 % 1017,5 hPa 0,0 l/m 0 min 0 min 109 W/m 0,0 km/h (0 Bft) 100,00 %
16.07.2020 18:04 16,6 C 16,1 C 15,0 C 95 % 1017,5 hPa 0,0 l/m 0 min 0 min 113 W/m 0,0 km/h (0 Bft) 100,00 %
16.07.2020 18:08 16,7 C 16,1 C 15,0 C 95 % 1017,5 hPa 0,0 l/m 0 min 0 min 110 W/m 3,2 km/h (1 Bft) 98,92 %
16.07.2020 18:10 16,7 C 16,1 C 15,6 C 96 % 1017,6 hPa 0,0 l/m 0 min 0 min 121 W/m 6,4 km/h (2 Bft) 100,00 %
16.07.2020 18:12 16,7 C 16,1 C 15,6 C 96 % 1017,6 hPa 0,0 l/m 0 min 0 min 134 W/m 0,0 km/h (0 Bft) 100,00 %
16.07.2020 18:14 16,8 C 16,1 C 15,6 C 96 % 1017,6 hPa 0,0 l/m 0 min 0 min 141 W/m 0,0 km/h (0 Bft) 100,00 %
16.07.2020 18:16 16,8 C 16,1 C 15,6 C 96 % 1017,6 hPa 0,0 l/m 0 min 0 min 140 W/m 12,9 km/h (3 Bft) 97,87 %
16.07.2020 18:18 16,8 C 16,7 C 15,6 C 96 % 1017,6 hPa 0,0 l/m 0 min 0 min 137 W/m 0,0 km/h (0 Bft) 100,00 %
16.07.2020 18:20 16,8 C 16,1 C 15,6 C 96 % 1017,6 hPa 0,0 l/m 0 min 0 min 134 W/m 9,7 km/h (2 Bft) 100,00 %
16.07.2020 18:22 16,8 C 16,7 C 15,6 C 96 % 1017,6 hPa 0,0 l/m 0 min 0 min 131 W/m 0,0 km/h (0 Bft) 100,00 %
16.07.2020 18:24 16,9 C 16,7 C 15,6 C 96 % 1017,6 hPa 0,0 l/m 0 min 0 min 128 W/m 0,0 km/h (0 Bft) 100,00 %
16.07.2020 18:26 16,9 C 16,7 C 15,6 C 96 % 1017,6 hPa 0,0 l/m 0 min 0 min 132 W/m 0,0 km/h (0 Bft) 100,00 %
16.07.2020 18:28 16,9 C 16,7 C 15,6 C 97 % 1017,6 hPa 0,0 l/m 0 min 0 min 139 W/m 0,0 km/h (0 Bft) 100,00 %
16.07.2020 18:30 16,9 C 16,7 C 15,6 C 97 % 1017,7 hPa 0,0 l/m 0 min 0 min 145 W/m 3,2 km/h (1 Bft) 100,00 %
16.07.2020 18:32 17,0 C 16,7 C 15,6 C 97 % 1017,7 hPa 0,0 l/m 0 min 0 min 146 W/m 3,2 km/h (1 Bft) 100,00 %
16.07.2020 18:34 17,0 C 16,7 C 15,6 C 97 % 1017,7 hPa 0,0 l/m 0 min 0 min 140 W/m 0,0 km/h (0 Bft) 100,00 %
16.07.2020 18:36 17,0 C 16,7 C 15,6 C 97 % 1017,7 hPa 0,0 l/m 0 min 0 min 131 W/m 6,4 km/h (2 Bft) 100,00 %
16.07.2020 18:38 17,0 C 16,7 C 15,6 C 97 % 1017,8 hPa 0,0 l/m 0 min 0 min 121 W/m 9,7 km/h (2 Bft) 100,00 %
16.07.2020 18:40 17,1 C 16,7 C 15,6 C 97 % 1017,8 hPa 0,0 l/m 0 min 0 min 114 W/m 3,2 km/h (1 Bft) 100,00 %
16.07.2020 18:42 17,1 C 16,7 C 16,1 C 97 % 1017,8 hPa 0,0 l/m 0 min 0 min 106 W/m 0,0 km/h (0 Bft) 97,83 %
16.07.2020 18:44 17,1 C 16,7 C 15,6 C 97 % 1017,8 hPa 0,0 l/m 0 min 0 min 96 W/m 0,0 km/h (0 Bft) 100,00 %
16.07.2020 18:46 17,1 C 16,7 C 15,6 C 97 % 1017,8 hPa 0,0 l/m 0 min 0 min 90 W/m 0,0 km/h (0 Bft) 100,00 %
16.07.2020 18:48 17,1 C 16,7 C 15,6 C 97 % 1017,9 hPa 0,0 l/m 0 min 0 min 84 W/m 0,0 km/h (0 Bft) 97,87 %
16.07.2020 18:50 17,2 C 16,1 C 15,6 C 97 % 1017,8 hPa 0,0 l/m 0 min 0 min 73 W/m 3,2 km/h (1 Bft) 95,74 %
16.07.2020 18:52 17,2 C 16,1 C 15,6 C 97 % 1017,9 hPa 0,0 l/m 0 min 0 min 62 W/m 0,0 km/h (0 Bft) 100,00 %
16.07.2020 18:54 17,2 C 16,1 C 15,6 C 97 % 1017,9 hPa 0,0 l/m 0 min 0 min 55 W/m 3,2 km/h (1 Bft) 100,00 %
16.07.2020 18:56 17,2 C 16,1 C 15,6 C 97 % 1017,9 hPa 0,0 l/m 0 min 0 min 51 W/m 3,2 km/h (1 Bft) 100,00 %
16.07.2020 18:58 17,2 C 16,1 C 15,6 C 97 % 1017,9 hPa 0,0 l/m 0 min 0 min 56 W/m 6,4 km/h (2 Bft) 100,00 %
16.07.2020 19:00 17,2 C 16,1 C 15,6 C 97 % 1017,9 hPa 0,0 l/m 0 min 0 min 63 W/m 3,2 km/h (1 Bft) 97,87 %
16.07.2020 19:02 17,2 C 16,1 C 15,6 C 97 % 1017,9 hPa 0,0 l/m 0 min 0 min 69 W/m 0,0 km/h (0 Bft) 97,87 %
16.07.2020 19:04 17,2 C 16,1 C 15,6 C 97 % 1017,9 hPa 0,0 l/m 0 min 0 min 72 W/m 0,0 km/h (0 Bft) 97,83 %
16.07.2020 19:06 17,2 C 16,1 C 15,6 C 97 % 1018,0 hPa 0,0 l/m 0 min 0 min 63 W/m 0,0 km/h (0 Bft) 97,87 %
16.07.2020 19:08 17,2 C 16,1 C 15,6 C 97 % 1017,9 hPa 0,0 l/m 0 min 0 min 49 W/m 6,4 km/h (2 Bft) 97,87 %
16.07.2020 19:10 17,2 C 16,1 C 15,6 C 97 % 1017,9 hPa 0,0 l/m 0 min 0 min 38 W/m 3,2 km/h (1 Bft) 97,87 %
16.07.2020 19:12 17,2 C 15,6 C 15,6 C 97 % 1017,9 hPa 0,0 l/m 0 min 0 min 30 W/m 3,2 km/h (1 Bft) 97,87 %
16.07.2020 19:14 17,1 C 15,6 C 15,6 C 97 % 1017,9 hPa 0,0 l/m 0 min 0 min 27 W/m 3,2 km/h (1 Bft) 97,87 %
16.07.2020 19:16 17,1 C 15,6 C 15,0 C 97 % 1017,9 hPa 0,0 l/m 0 min 0 min 30 W/m 3,2 km/h (1 Bft) 95,65 %
16.07.2020 19:18 17,1 C 15,6 C 15,0 C 97 % 1017,9 hPa 0,0 l/m 0 min 0 min 33 W/m 6,4 km/h (2 Bft) 97,87 %
16.07.2020 19:20 17,1 C 15,6 C 15,0 C 97 % 1017,9 hPa 0,0 l/m 0 min 0 min 34 W/m 3,2 km/h (1 Bft) 97,87 %
16.07.2020 19:22 17,0 C 15,6 C 15,0 C 97 % 1017,9 hPa 0,0 l/m 0 min 0 min 39 W/m 3,2 km/h (1 Bft) 95,74 %
16.07.2020 19:24 17,0 C 15,6 C 15,0 C 97 % 1017,9 hPa 0,0 l/m 0 min 0 min 44 W/m 3,2 km/h (1 Bft) 95,74 %
16.07.2020 19:26 17,0 C 15,6 C 15,0 C 97 % 1017,9 hPa 0,0 l/m 0 min 0 min 48 W/m 0,0 km/h (0 Bft) 97,87 %
16.07.2020 19:28 16,9 C 15,6 C 15,0 C 97 % 1018,0 hPa 0,0 l/m 0 min 0 min 51 W/m 12,9 km/h (3 Bft) 97,83 %
16.07.2020 19:30 16,9 C 15,6 C 15,0 C 97 % 1018,0 hPa 0,0 l/m 0 min 0 min 56 W/m 3,2 km/h (1 Bft) 95,74 %
16.07.2020 19:32 16,9 C 15,6 C 15,0 C 97 % 1018,0 hPa 0,0 l/m 0 min 0 min 63 W/m 9,7 km/h (2 Bft) 97,87 %
16.07.2020 19:34 16,9 C 15,6 C 15,0 C 97 % 1018,0 hPa 0,0 l/m 0 min 0 min 68 W/m 9,7 km/h (2 Bft) 95,74 %
16.07.2020 19:36 16,9 C 15,6 C 15,0 C 97 % 1018,0 hPa 0,0 l/m 0 min 0 min 69 W/m 6,4 km/h (2 Bft) 93,62 %
16.07.2020 19:38 16,9 C 15,6 C 15,0 C 97 % 1018,2 hPa 0,0 l/m 0 min 0 min 58 W/m 19,3 km/h (3 Bft) 89,36 %
16.07.2020 19:40 16,8 C 15,6 C 15,0 C 97 % 1018,1 hPa 0,0 l/m 0 min 0 min 36 W/m 6,4 km/h (2 Bft) 94,44 %
16.07.2020 19:42 16,8 C 15,6 C 15,0 C 97 % 1018,2 hPa 0,0 l/m 0 min 0 min 19 W/m 6,4 km/h (2 Bft) 91,49 %
16.07.2020 19:44 16,8 C 15,0 C 15,0 C 97 % 1018,3 hPa 0,0 l/m 0 min 0 min 11 W/m 16,1 km/h (3 Bft) 93,62 %
16.07.2020 19:46 16,7 C 15,0 C 15,0 C 97 % 1018,3 hPa 0,0 l/m 0 min 0 min 7 W/m 6,4 km/h (2 Bft) 91,49 %
16.07.2020 19:48 16,7 C 15,0 C 15,0 C 97 % 1018,3 hPa 0,0 l/m 0 min 2 min 7 W/m 6,4 km/h (2 Bft) 91,49 %
16.07.2020 19:50 16,6 C 15,0 C 15,0 C 97 % 1018,4 hPa 0,0 l/m 0 min 2 min 7 W/m 6,4 km/h (2 Bft) 95,74 %
16.07.2020 19:52 16,6 C 14,4 C 15,0 C 96 % 1018,4 hPa 0,0 l/m 0 min 2 min 7 W/m 16,1 km/h (3 Bft) 97,37 %
16.07.2020 19:54 16,5 C 14,4 C 14,4 C 96 % 1018,4 hPa 0,0 l/m 0 min 0 min 9 W/m 16,1 km/h (3 Bft) 95,74 %
16.07.2020 19:56 16,4 C 14,4 C 14,4 C 96 % 1018,4 hPa 0,0 l/m 0 min 0 min 9 W/m 3,2 km/h (1 Bft) 91,49 %
16.07.2020 19:58 16,4 C 14,4 C 14,4 C 96 % 1018,4 hPa 0,0 l/m 0 min 0 min 9 W/m 6,4 km/h (2 Bft) 95,74 %
16.07.2020 20:00 16,3 C 14,4 C 14,4 C 96 % 1018,4 hPa 0,0 l/m 0 min 0 min 9 W/m 3,2 km/h (1 Bft) 95,74 %
16.07.2020 20:02 16,3 C 14,4 C 14,4 C 96 % 1018,4 hPa 0,0 l/m 0 min 0 min 9 W/m 6,4 km/h (2 Bft) 95,65 %
16.07.2020 20:04 16,2 C 14,4 C 14,4 C 96 % 1018,4 hPa 0,0 l/m 0 min 0 min 9 W/m 3,2 km/h (1 Bft) 95,74 %
16.07.2020 20:06 16,2 C 14,4 C 14,4 C 96 % 1018,4 hPa 0,0 l/m 0 min 0 min 9 W/m 12,9 km/h (3 Bft) 97,87 %
16.07.2020 20:08 16,1 C 14,4 C 14,4 C 96 % 1018,4 hPa 0,0 l/m 0 min 0 min 8 W/m 19,3 km/h (3 Bft) 95,74 %
16.07.2020 20:10 16,1 C 13,9 C 14,4 C 96 % 1018,4 hPa 0,0 l/m 0 min 0 min 7 W/m 3,2 km/h (1 Bft) 94,55 %
16.07.2020 20:12 16,0 C 13,9 C 14,4 C 96 % 1018,4 hPa 0,0 l/m 0 min 2 min 7 W/m 3,2 km/h (1 Bft) 97,14 %
16.07.2020 20:14 16,0 C 13,9 C 13,9 C 96 % 1018,5 hPa 0,0 l/m 0 min 2 min 7 W/m 3,2 km/h (1 Bft) 93,62 %
16.07.2020 20:16 15,9 C 13,9 C 13,9 C 96 % 1018,4 hPa 0,0 l/m 0 min 0 min 9 W/m 0,0 km/h (0 Bft) 95,74 %
16.07.2020 20:18 15,9 C 13,9 C 13,9 C 96 % 1018,4 hPa 0,0 l/m 0 min 0 min 9 W/m 3,2 km/h (1 Bft) 95,74 %
16.07.2020 20:20 15,9 C 13,9 C 13,9 C 96 % 1018,4 hPa 0,0 l/m 0 min 2 min 9 W/m 0,0 km/h (0 Bft) 95,65 %
16.07.2020 20:22 15,8 C 13,9 C 13,9 C 96 % 1018,4 hPa 0,0 l/m 0 min 2 min 9 W/m 0,0 km/h (0 Bft) 95,74 %
16.07.2020 20:24 15,8 C 13,9 C 13,9 C 96 % 1018,4 hPa 0,0 l/m 0 min 0 min 9 W/m 0,0 km/h (0 Bft) 97,87 %
16.07.2020 20:26 15,8 C 13,9 C 13,9 C 96 % 1018,5 hPa 0,2 l/m 0 min 0 min 10 W/m 0,0 km/h (0 Bft) 100,00 %
16.07.2020 20:28 15,8 C 13,9 C 13,9 C 96 % 1018,4 hPa 0,0 l/m 0 min 0 min 11 W/m 0,0 km/h (0 Bft) 97,62 %
16.07.2020 20:30 15,8 C 13,9 C 13,9 C 96 % 1018,4 hPa 0,0 l/m 0 min 0 min 11 W/m 6,4 km/h (2 Bft) 97,87 %
16.07.2020 20:32 15,7 C 13,9 C 13,9 C 96 % 1018,4 hPa 0,0 l/m 0 min 0 min 12 W/m 3,2 km/h (1 Bft) 97,87 %
16.07.2020 20:34 15,7 C 13,9 C 13,9 C 96 % 1018,5 hPa 0,0 l/m 0 min 0 min 12 W/m 0,0 km/h (0 Bft) 95,74 %
16.07.2020 20:36 15,7 C 13,9 C 13,9 C 96 % 1018,5 hPa 0,0 l/m 0 min 0 min 12 W/m 0,0 km/h (0 Bft) 97,92 %
16.07.2020 20:38 15,7 C 13,9 C 13,9 C 96 % 1018,5 hPa 0,0 l/m 0 min 0 min 12 W/m 0,0 km/h (0 Bft) 98,31 %
16.07.2020 20:40 15,7 C 13,9 C 13,9 C 96 % 1018,5 hPa 0,0 l/m 0 min 0 min 11 W/m 3,2 km/h (1 Bft) 100,00 %
16.07.2020 20:42 15,7 C 13,9 C 13,9 C 96 % 1018,6 hPa 0,0 l/m 0 min 0 min 11 W/m 3,2 km/h (1 Bft) 100,00 %
16.07.2020 20:44 15,7 C 13,9 C 13,9 C 96 % 1018,6 hPa 0,0 l/m 0 min 0 min 11 W/m 3,2 km/h (1 Bft) 97,87 %
16.07.2020 20:46 15,6 C 13,9 C 13,9 C 96 % 1018,6 hPa 0,0 l/m 0 min 0 min 10 W/m 0,0 km/h (0 Bft) 100,00 %
16.07.2020 20:48 15,6 C 13,9 C 13,9 C 96 % 1018,6 hPa 0,0 l/m 0 min 0 min 9 W/m 0,0 km/h (0 Bft) 100,00 %
16.07.2020 20:50 15,6 C 13,9 C 13,9 C 96 % 1018,6 hPa 0,0 l/m 0 min 0 min 9 W/m 3,2 km/h (1 Bft) 100,00 %
16.07.2020 20:52 15,6 C 13,9 C 13,9 C 96 % 1018,6 hPa 0,0 l/m 0 min 0 min 9 W/m 0,0 km/h (0 Bft) 97,87 %
16.07.2020 20:54 15,6 C 13,9 C 13,9 C 96 % 1018,6 hPa 0,0 l/m 0 min 0 min 9 W/m 0,0 km/h (0 Bft) 100,00 %
16.07.2020 20:56 15,6 C 13,9 C 13,9 C 96 % 1018,7 hPa 0,0 l/m 0 min 0 min 9 W/m 0,0 km/h (0 Bft) 100,00 %
16.07.2020 20:58 15,6 C 13,9 C 13,9 C 97 % 1018,7 hPa 0,0 l/m 0 min 0 min 11 W/m 0,0 km/h (0 Bft) 100,00 %
16.07.2020 21:00 15,6 C 13,9 C 13,9 C 97 % 1018,7 hPa 0,0 l/m 0 min 0 min 9 W/m 3,2 km/h (1 Bft) 100,00 %
16.07.2020 21:02 15,6 C 13,9 C 13,9 C 97 % 1018,7 hPa 0,0 l/m 0 min 0 min 9 W/m 0,0 km/h (0 Bft) 95,92 %
16.07.2020 21:04 15,6 C 13,9 C 13,9 C 97 % 1018,8 hPa 0,0 l/m 0 min 0 min 9 W/m 0,0 km/h (0 Bft) 100,00 %
16.07.2020 21:06 15,6 C 13,9 C 13,9 C 97 % 1018,8 hPa 0,0 l/m 0 min 0 min 9 W/m 0,0 km/h (0 Bft) 100,00 %
16.07.2020 21:08 15,5 C 13,9 C 13,9 C 97 % 1018,8 hPa 0,0 l/m 0 min 0 min 9 W/m 0,0 km/h (0 Bft) 100,00 %
16.07.2020 21:10 15,5 C 13,9 C 13,9 C 97 % 1018,8 hPa 0,0 l/m 0 min 0 min 9 W/m 0,0 km/h (0 Bft) 100,00 %
16.07.2020 21:12 15,5 C 13,9 C 13,9 C 97 % 1018,8 hPa 0,0 l/m 0 min 0 min 7 W/m 3,2 km/h (1 Bft) 100,00 %
16.07.2020 21:14 15,5 C 13,9 C 13,9 C 97 % 1018,9 hPa 0,0 l/m 0 min 0 min 9 W/m 0,0 km/h (0 Bft) 100,00 %
16.07.2020 21:16 15,5 C 13,9 C 13,9 C 97 % 1018,9 hPa 0,0 l/m 0 min 0 min 8 W/m 0,0 km/h (0 Bft) 100,00 %
16.07.2020 21:18 15,5 C 13,9 C 13,9 C 97 % 1019,0 hPa 0,0 l/m 0 min 0 min 5 W/m 0,0 km/h (0 Bft) 100,00 %
16.07.2020 21:20 15,5 C 13,9 C 13,9 C 97 % 1018,9 hPa 0,0 l/m 0 min 0 min 5 W/m 0,0 km/h (0 Bft) 100,00 %
16.07.2020 21:22 15,5 C 13,9 C 13,9 C 97 % 1018,9 hPa 0,0 l/m 0 min 0 min 5 W/m 0,0 km/h (0 Bft) 100,00 %
16.07.2020 21:24 15,4 C 13,9 C 13,9 C 97 % 1019,0 hPa 0,0 l/m 0 min 0 min 5 W/m 0,0 km/h (0 Bft) 100,00 %
16.07.2020 21:26 15,4 C 13,9 C 13,9 C 97 % 1019,1 hPa 0,0 l/m 0 min 0 min 0 W/m 0,0 km/h (0 Bft) 100,00 %
16.07.2020 21:28 15,4 C 13,9 C 13,9 C 97 % 1019,0 hPa 0,0 l/m 0 min 0 min 0 W/m 0,0 km/h (0 Bft) 100,00 %
16.07.2020 21:30 15,4 C 13,9 C 13,9 C 97 % 1019,1 hPa 0,0 l/m 0 min 0 min 0 W/m 0,0 km/h (0 Bft) 100,00 %
16.07.2020 21:32 15,4 C 13,9 C 13,9 C 97 % 1019,1 hPa 0,0 l/m 0 min 0 min 0 W/m 0,0 km/h (0 Bft) 97,87 %
16.07.2020 21:34 15,4 C 13,9 C 13,9 C 97 % 1019,1 hPa 0,0 l/m 0 min 0 min 0 W/m 3,2 km/h (1 Bft) 100,00 %
16.07.2020 21:36 15,4 C 13,9 C 13,9 C 97 % 1019,1 hPa 0,0 l/m 0 min 0 min 0 W/m 0,0 km/h (0 Bft) 97,92 %
16.07.2020 21:38 15,4 C 13,9 C 13,9 C 97 % 1019,0 hPa 0,0 l/m 0 min 0 min 0 W/m 0,0 km/h (0 Bft) 97,83 %
16.07.2020 21:40 15,4 C 13,9 C 13,9 C 97 % 1019,1 hPa 0,0 l/m 0 min 0 min 0 W/m 0,0 km/h (0 Bft) 100,00 %
16.07.2020 21:42 15,4 C 13,9 C 13,9 C 97 % 1019,1 hPa 0,0 l/m 0 min 0 min 0 W/m 0,0 km/h (0 Bft) 100,00 %
16.07.2020 21:44 15,4 C 13,9 C 13,9 C 97 % 1019,1 hPa 0,0 l/m 0 min 0 min 0 W/m 0,0 km/h (0 Bft) 100,00 %
16.07.2020 21:46 15,4 C 13,9 C 13,9 C 97 % 1019,1 hPa 0,0 l/m 0 min 0 min 0 W/m 0,0 km/h (0 Bft) 95,83 %
16.07.2020 21:48 15,4 C 13,9 C 13,9 C 97 % 1019,1 hPa 0,0 l/m 0 min 0 min 0 W/m 0,0 km/h (0 Bft) 97,83 %
16.07.2020 21:50 15,4 C 13,9 C 13,9 C 97 % 1019,1 hPa 0,0 l/m 0 min 0 min 0 W/m 0,0 km/h (0 Bft) 95,74 %
16.07.2020 21:52 15,4 C 13,9 C 13,9 C 97 % 1019,2 hPa 0,0 l/m 0 min 0 min 0 W/m 0,0 km/h (0 Bft) 95,74 %
16.07.2020 21:54 15,4 C 13,9 C 13,9 C 97 % 1019,2 hPa 0,0 l/m 0 min 0 min 0 W/m 0,0 km/h (0 Bft) 97,87 %
16.07.2020 21:56 15,4 C 13,9 C 13,9 C 97 % 1019,1 hPa 0,0 l/m 0 min 0 min 0 W/m 0,0 km/h (0 Bft) 95,74 %
16.07.2020 21:58 15,4 C 13,9 C 13,9 C 97 % 1019,2 hPa 0,0 l/m 0 min 0 min 0 W/m 0,0 km/h (0 Bft) 97,87 %
16.07.2020 22:00 15,4 C 13,9 C 13,9 C 97 % 1019,2 hPa 0,0 l/m 0 min 0 min 0 W/m 0,0 km/h (0 Bft) 97,87 %
16.07.2020 22:02 15,4 C 13,9 C 13,9 C 97 % 1019,2 hPa 0,0 l/m 0 min 0 min 0 W/m 0,0 km/h (0 Bft) 97,87 %
16.07.2020 22:04 15,4 C 13,9 C 13,9 C 97 % 1019,2 hPa 0,0 l/m 0 min 0 min 0 W/m 0,0 km/h (0 Bft) 97,67 %
16.07.2020 22:06 15,4 C 13,9 C 13,9 C 97 % 1019,2 hPa 0,0 l/m 0 min 0 min 0 W/m 0,0 km/h (0 Bft) 95,83 %
16.07.2020 22:08 15,4 C 13,9 C 13,9 C 97 % 1019,2 hPa 0,0 l/m 0 min 0 min 0 W/m 0,0 km/h (0 Bft) 97,87 %
16.07.2020 22:10 15,3 C 13,9 C 13,9 C 97 % 1019,3 hPa 0,0 l/m 0 min 0 min 0 W/m 0,0 km/h (0 Bft) 97,87 %
16.07.2020 22:12 15,3 C 13,9 C 13,9 C 97 % 1019,2 hPa 0,0 l/m 0 min 0 min 0 W/m 0,0 km/h (0 Bft) 97,87 %
16.07.2020 22:14 15,3 C 13,9 C 13,9 C 97 % 1019,2 hPa 0,0 l/m 0 min 0 min 0 W/m 0,0 km/h (0 Bft) 97,87 %
16.07.2020 22:16 15,3 C 13,9 C 13,9 C 97 % 1019,3 hPa 0,0 l/m 0 min 0 min 0 W/m 0,0 km/h (0 Bft) 97,87 %
16.07.2020 22:18 15,3 C 13,9 C 13,9 C 97 % 1019,3 hPa 0,0 l/m 0 min 0 min 0 W/m 0,0 km/h (0 Bft) 97,87 %
16.07.2020 22:20 15,3 C 13,9 C 13,9 C 97 % 1019,3 hPa 0,0 l/m 0 min 0 min 0 W/m 0,0 km/h (0 Bft) 97,87 %
16.07.2020 22:22 15,3 C 13,9 C 13,9 C 97 % 1019,3 hPa 0,0 l/m 0 min 0 min 0 W/m 0,0 km/h (0 Bft) 95,74 %
16.07.2020 22:24 15,3 C 13,9 C 13,9 C 97 % 1019,3 hPa 0,0 l/m 0 min 0 min 0 W/m 0,0 km/h (0 Bft) 97,87 %
16.07.2020 22:26 15,3 C 13,9 C 13,9 C 97 % 1019,4 hPa 0,0 l/m 0 min 0 min 0 W/m 0,0 km/h (0 Bft) 97,87 %
16.07.2020 22:28 15,3 C 13,9 C 13,9 C 97 % 1019,4 hPa 0,0 l/m 0 min 0 min 0 W/m 0,0 km/h (0 Bft) 95,74 %
16.07.2020 22:30 15,3 C 13,9 C 13,9 C 97 % 1019,4 hPa 0,0 l/m 0 min 0 min 0 W/m 0,0 km/h (0 Bft) 100,00 %
16.07.2020 22:32 15,3 C 13,9 C 13,9 C 97 % 1019,4 hPa 0,0 l/m 0 min 0 min 0 W/m 0,0 km/h (0 Bft) 93,62 %
16.07.2020 22:34 15,3 C 13,9 C 13,9 C 97 % 1019,4 hPa 0,0 l/m 0 min 0 min 0 W/m 0,0 km/h (0 Bft) 95,74 %
16.07.2020 22:36 15,3 C 13,9 C 13,9 C 97 % 1019,4 hPa 0,0 l/m 0 min 0 min 0 W/m 0,0 km/h (0 Bft) 97,87 %
16.07.2020 22:38 15,3 C 13,9 C 13,9 C 97 % 1019,4 hPa 0,0 l/m 0 min 0 min 0 W/m 0,0 km/h (0 Bft) 95,65 %
16.07.2020 22:40 15,2 C 13,9 C 13,9 C 97 % 1019,4 hPa 0,0 l/m 0 min 0 min 0 W/m 0,0 km/h (0 Bft) 97,87 %
16.07.2020 22:42 15,2 C 13,9 C 13,9 C 97 % 1019,4 hPa 0,0 l/m 0 min 0 min 0 W/m 0,0 km/h (0 Bft) 97,87 %
16.07.2020 22:44 15,2 C 13,9 C 13,9 C 97 % 1019,4 hPa 0,0 l/m 0 min 0 min 0 W/m 0,0 km/h (0 Bft) 97,87 %
16.07.2020 22:46 15,2 C 13,9 C 13,9 C 97 % 1019,4 hPa 0,0 l/m 0 min 0 min 0 W/m 0,0 km/h (0 Bft) 97,62 %
16.07.2020 22:48 15,2 C 13,9 C 13,3 C 97 % 1019,4 hPa 0,0 l/m 0 min 0 min 0 W/m 0,0 km/h (0 Bft) 97,87 %
16.07.2020 22:50 15,2 C 13,9 C 13,3 C 97 % 1019,4 hPa 0,0 l/m 0 min 0 min 0 W/m 0,0 km/h (0 Bft) 97,92 %
16.07.2020 22:52 15,2 C 13,9 C 13,3 C 97 % 1019,4 hPa 0,0 l/m 0 min 0 min 0 W/m 0,0 km/h (0 Bft) 95,74 %
16.07.2020 22:54 15,2 C 13,9 C 13,3 C 97 % 1019,5 hPa 0,0 l/m 0 min 0 min 0 W/m 0,0 km/h (0 Bft) 97,92 %
16.07.2020 22:56 15,2 C 13,9 C 13,3 C 97 % 1019,5 hPa 0,0 l/m 0 min 0 min 0 W/m 0,0 km/h (0 Bft) 100,00 %
16.07.2020 22:58 15,2 C 13,9 C 13,3 C 97 % 1019,5 hPa 0,0 l/m 0 min 0 min 0 W/m 0,0 km/h (0 Bft) 97,83 %
16.07.2020 23:00 15,2 C 13,9 C 13,3 C 97 % 1019,5 hPa 0,0 l/m 0 min 0 min 0 W/m 0,0 km/h (0 Bft) 95,74 %
16.07.2020 23:02 15,1 C 13,9 C 13,9 C 97 % 1019,6 hPa 0,0 l/m 0 min 0 min 0 W/m 0,0 km/h (0 Bft) 97,87 %
16.07.2020 23:04 15,1 C 13,9 C 13,9 C 97 % 1019,6 hPa 0,0 l/m 0 min 0 min 0 W/m 0,0 km/h (0 Bft) 95,74 %
16.07.2020 23:06 15,1 C 13,9 C 13,9 C 97 % 1019,6 hPa 0,0 l/m 0 min 0 min 0 W/m 0,0 km/h (0 Bft) 95,83 %
16.07.2020 23:08 15,1 C 13,9 C 13,9 C 97 % 1019,6 hPa 0,0 l/m 0 min 0 min 0 W/m 0,0 km/h (0 Bft) 93,75 %
16.07.2020 23:10 15,1 C 13,9 C 13,9 C 97 % 1019,6 hPa 0,0 l/m 0 min 0 min 0 W/m 0,0 km/h (0 Bft) 95,74 %
16.07.2020 23:12 15,1 C 13,9 C 13,9 C 97 % 1019,6 hPa 0,0 l/m 0 min 0 min 0 W/m 0,0 km/h (0 Bft) 93,75 %
16.07.2020 23:14 15,1 C 13,9 C 13,9 C 97 % 1019,6 hPa 0,0 l/m 0 min 0 min 0 W/m 0,0 km/h (0 Bft) 95,74 %
16.07.2020 23:16 15,1 C 13,9 C 13,9 C 97 % 1019,6 hPa 0,0 l/m 0 min 0 min 0 W/m 0,0 km/h (0 Bft) 97,87 %
16.07.2020 23:18 15,1 C 13,9 C 13,9 C 97 % 1019,7 hPa 0,0 l/m 0 min 0 min 0 W/m 0,0 km/h (0 Bft) 95,74 %
16.07.2020 23:20 15,1 C 13,9 C 13,9 C 97 % 1019,6 hPa 0,0 l/m 0 min 0 min 0 W/m 0,0 km/h (0 Bft) 97,87 %
16.07.2020 23:22 15,1 C 13,9 C 13,9 C 97 % 1019,7 hPa 0,0 l/m 0 min 0 min 0 W/m 0,0 km/h (0 Bft) 97,87 %
16.07.2020 23:24 15,1 C 13,9 C 13,9 C 97 % 1019,7 hPa 0,0 l/m 0 min 0 min 0 W/m 0,0 km/h (0 Bft) 95,65 %
16.07.2020 23:26 15,1 C 13,9 C 13,9 C 97 % 1019,7 hPa 0,0 l/m 0 min 0 min 0 W/m 3,2 km/h (1 Bft) 97,62 %
16.07.2020 23:28 15,1 C 13,9 C 13,9 C 97 % 1019,7 hPa 0,0 l/m 0 min 0 min 0 W/m 0,0 km/h (0 Bft) 95,83 %
16.07.2020 23:30 15,1 C 13,9 C 13,9 C 98 % 1019,7 hPa 0,0 l/m 0 min 0 min 0 W/m 3,2 km/h (1 Bft) 95,83 %
16.07.2020 23:32 15,1 C 13,9 C 13,9 C 97 % 1019,7 hPa 0,0 l/m 0 min 0 min 0 W/m 0,0 km/h (0 Bft) 95,74 %
16.07.2020 23:34 15,1 C 13,9 C 13,9 C 98 % 1019,7 hPa 0,0 l/m 0 min 0 min 0 W/m 0,0 km/h (0 Bft) 97,92 %
16.07.2020 23:36 15,1 C 13,9 C 13,9 C 98 % 1019,7 hPa 0,0 l/m 0 min 0 min 0 W/m 0,0 km/h (0 Bft) 97,92 %
16.07.2020 23:38 15,1 C 13,9 C 13,9 C 98 % 1019,8 hPa 0,0 l/m 0 min 0 min 0 W/m 0,0 km/h (0 Bft) 95,74 %
16.07.2020 23:40 15,1 C 13,9 C 13,9 C 98 % 1019,8 hPa 0,0 l/m 0 min 0 min 0 W/m 0,0 km/h (0 Bft) 97,87 %
16.07.2020 23:42 15,1 C 13,9 C 13,9 C 98 % 1019,8 hPa 0,0 l/m 0 min 0 min 0 W/m 0,0 km/h (0 Bft) 97,87 %
16.07.2020 23:44 15,1 C 13,9 C 13,9 C 98 % 1019,8 hPa 0,0 l/m 0 min 0 min 0 W/m 0,0 km/h (0 Bft) 97,87 %
16.07.2020 23:46 15,1 C 13,9 C 13,9 C 98 % 1019,8 hPa 0,0 l/m 0 min 0 min 0 W/m 0,0 km/h (0 Bft) 95,74 %
16.07.2020 23:48 15,1 C 13,9 C 13,9 C 98 % 1019,9 hPa 0,0 l/m 0 min 0 min 0 W/m 0,0 km/h (0 Bft) 97,83 %
16.07.2020 23:50 15,1 C 13,9 C 13,9 C 98 % 1019,9 hPa 0,0 l/m 0 min 0 min 0 W/m 0,0 km/h (0 Bft) 97,62 %
16.07.2020 23:52 15,1 C 13,9 C 13,9 C 98 % 1019,9 hPa 0,0 l/m 0 min 0 min 0 W/m 0,0 km/h (0 Bft) 97,96 %
16.07.2020 23:54 15,1 C 13,9 C 13,9 C 98 % 1019,9 hPa 0,0 l/m 0 min 0 min 0 W/m 0,0 km/h (0 Bft) 97,87 %
16.07.2020 23:56 15,1 C 13,9 C 13,9 C 98 % 1019,8 hPa 0,0 l/m 0 min 0 min 0 W/m 3,2 km/h (1 Bft) 93,75 %
16.07.2020 23:58 15,1 C 13,9 C 13,9 C 98 % 1019,9 hPa 0,0 l/m 0 min 0 min 0 W/m 0,0 km/h (0 Bft) 97,96 %
_ Min-Zeit 04:36 03:16 02:54 00:00 04:42 - - - - 00:00 04:40
Minimum _ 14,7 C 12,8 C 12,8 C 83 % 1016,1 hPa - - - - 0,0 km/h (0 Bft) 67,92 %
_ Max-Zeit 15:26 14:56 14:54 23:30 23:48 16:50 14:46 14:20 14:48 12:40 00:00
Maximum _ 19,4 C 22,2 C 18,9 C 98 % 1019,9 hPa 0,8 l/m 5 min 5 min 507 W/m 19,3 km/h
S (3 Bft)
100,00 %
Durchschnitt _ 16,0 C 15,0 C 14,6 C 93 % 1017,2 hPa #3,4 l/m #13 min. #2:55 h 95 W/m 3,4 km/h (1 Bft) 97,42 %
© 2020 W. Hausmann